ECMWFNIL_prec_pwat_000.txt.gz
Precipitable_Water
0.38 0.39 0.39 0.39 0.38 0.38 0.37 0.35 0.34 0.33 0.32 0.32 0.31 0.30 0.30 0.30 0.31 0.31 0.31 0.31 0.31 0.31 0.30 0.30 0.30 0.30 0.30 0.30 0.31 0.32 0.32 0.32 0.32 0.31 0.30 0.29 0.27 0.26 0.25 0.25 0.25 0.25
0.38 0.39 0.40 0.40 0.39 0.38 0.37 0.36 0.34 0.33 0.32 0.31 0.31 0.31 0.31 0.31 0.31 0.31 0.31 0.31 0.31 0.31 0.31 0.31 0.30 0.30 0.30 0.30 0.31 0.31 0.32 0.32 0.31 0.31 0.29 0.28 0.27 0.26 0.25 0.25 0.25 0.25
0.38 0.39 0.40 0.40 0.40 0.39 0.38 0.37 0.35 0.34 0.32 0.32 0.31 0.31 0.31 0.31 0.31 0.32 0.32 0.31 0.31 0.31 0.31 0.31 0.31 0.31 0.31 0.31 0.32 0.32 0.32 0.31 0.30 0.30 0.29 0.27 0.27 0.26 0.25 0.25 0.25 0.24
0.39 0.40 0.40 0.41 0.40 0.39 0.38 0.37 0.36 0.35 0.34 0.33 0.32 0.32 0.32 0.32 0.32 0.32 0.32 0.32 0.31 0.31 0.31 0.31 0.32 0.32 0.31 0.32 0.32 0.32 0.32 0.31 0.30 0.30 0.28 0.27 0.26 0.25 0.24 0.25 0.25 0.25
0.40 0.40 0.41 0.41 0.41 0.40 0.39 0.37 0.36 0.36 0.35 0.34 0.33 0.33 0.33 0.33 0.33 0.33 0.33 0.32 0.32 0.32 0.32 0.32 0.32 0.32 0.31 0.32 0.32 0.32 0.31 0.30 0.30 0.29 0.27 0.25 0.25 0.25 0.25 0.25 0.25 0.24
0.41 0.42 0.41 0.41 0.42 0.41 0.40 0.38 0.37 0.37 0.36 0.35 0.34 0.34 0.34 0.34 0.33 0.33 0.33 0.32 0.33 0.33 0.33 0.32 0.32 0.31 0.31 0.31 0.31 0.31 0.30 0.29 0.28 0.27 0.25 0.24 0.24 0.25 0.25 0.25 0.24 0.23
0.42 0.42 0.42 0.42 0.42 0.42 0.40 0.39 0.38 0.37 0.37 0.36 0.35 0.35 0.34 0.34 0.33 0.33 0.33 0.33 0.33 0.33 0.32 0.32 0.31 0.30 0.31 0.31 0.31 0.30 0.30 0.28 0.27 0.26 0.25 0.24 0.24 0.24 0.24 0.24 0.23 0.22
0.42 0.43 0.42 0.42 0.42 0.43 0.41 0.40 0.39 0.38 0.37 0.37 0.35 0.35 0.35 0.34 0.34 0.34 0.33 0.33 0.33 0.33 0.33 0.32 0.31 0.31 0.31 0.31 0.30 0.29 0.28 0.27 0.26 0.25 0.25 0.24 0.24 0.23 0.23 0.22 0.22 0.20
0.43 0.43 0.43 0.42 0.43 0.43 0.42 0.41 0.40 0.38 0.38 0.37 0.36 0.36 0.36 0.35 0.34 0.34 0.33 0.33 0.33 0.33 0.33 0.32 0.31 0.31 0.31 0.30 0.30 0.29 0.27 0.26 0.26 0.25 0.24 0.23 0.23 0.22 0.22 0.22 0.20 0.19
0.43 0.43 0.43 0.43 0.42 0.43 0.42 0.42 0.40 0.39 0.39 0.38 0.37 0.37 0.36 0.36 0.36 0.35 0.34 0.33 0.33 0.33 0.33 0.32 0.31 0.31 0.30 0.30 0.29 0.28 0.27 0.26 0.25 0.25 0.24 0.24 0.23 0.22 0.21 0.21 0.20 0.19
0.42 0.43 0.43 0.43 0.43 0.43 0.43 0.42 0.41 0.40 0.39 0.39 0.38 0.38 0.37 0.36 0.36 0.35 0.34 0.33 0.33 0.32 0.32 0.31 0.31 0.31 0.30 0.30 0.29 0.28 0.27 0.26 0.25 0.24 0.24 0.23 0.23 0.22 0.21 0.21 0.20 0.19
0.42 0.43 0.43 0.43 0.43 0.43 0.43 0.43 0.42 0.40 0.40 0.39 0.38 0.37 0.37 0.36 0.35 0.35 0.34 0.33 0.33 0.33 0.32 0.31 0.31 0.30 0.30 0.29 0.29 0.27 0.26 0.25 0.24 0.23 0.23 0.22 0.22 0.21 0.21 0.21 0.20 0.19
0.43 0.43 0.43 0.43 0.43 0.44 0.43 0.43 0.42 0.41 0.40 0.39 0.38 0.37 0.36 0.35 0.35 0.34 0.34 0.33 0.33 0.33 0.31 0.31 0.31 0.30 0.30 0.29 0.28 0.27 0.25 0.24 0.23 0.23 0.22 0.22 0.21 0.21 0.21 0.20 0.19 0.19
0.44 0.44 0.44 0.44 0.44 0.44 0.43 0.42 0.41 0.41 0.40 0.39 0.38 0.37 0.36 0.35 0.34 0.34 0.33 0.33 0.33 0.32 0.31 0.30 0.30 0.30 0.29 0.28 0.27 0.26 0.25 0.23 0.23 0.22 0.21 0.21 0.21 0.21 0.21 0.20 0.19 0.19
0.44 0.44 0.45 0.45 0.45 0.44 0.43 0.42 0.42 0.41 0.41 0.39 0.38 0.36 0.35 0.35 0.34 0.33 0.33 0.32 0.33 0.32 0.30 0.30 0.29 0.28 0.28 0.27 0.26 0.25 0.24 0.23 0.22 0.22 0.21 0.21 0.21 0.20 0.20 0.19 0.19 0.18
0.44 0.44 0.44 0.44 0.43 0.43 0.42 0.42 0.42 0.41 0.40 0.38 0.37 0.36 0.35 0.35 0.34 0.33 0.33 0.32 0.32 0.31 0.30 0.29 0.29 0.28 0.27 0.27 0.26 0.25 0.24 0.23 0.22 0.22 0.21 0.21 0.21 0.20 0.20 0.19 0.18 0.18
0.43 0.43 0.43 0.43 0.42 0.42 0.41 0.41 0.40 0.39 0.38 0.37 0.36 0.35 0.34 0.34 0.33 0.32 0.32 0.31 0.31 0.31 0.29 0.28 0.28 0.27 0.27 0.27 0.26 0.26 0.25 0.24 0.23 0.22 0.22 0.22 0.21 0.20 0.19 0.19 0.18 0.18
0.43 0.42 0.42 0.42 0.43 0.42 0.42 0.41 0.40 0.39 0.38 0.37 0.36 0.35 0.34 0.34 0.33 0.32 0.32 0.32 0.32 0.31 0.28 0.27 0.27 0.27 0.26 0.26 0.25 0.25 0.25 0.24 0.23 0.23 0.22 0.22 0.21 0.20 0.19 0.18 0.17 0.17
0.43 0.42 0.43 0.43 0.43 0.42 0.42 0.41 0.40 0.39 0.38 0.37 0.36 0.35 0.35 0.34 0.33 0.32 0.32 0.33 0.32 0.30 0.28 0.27 0.27 0.26 0.26 0.25 0.25 0.24 0.24 0.23 0.23 0.23 0.22 0.21 0.20 0.19 0.18 0.17 0.17 0.16
0.45 0.44 0.44 0.44 0.43 0.43 0.42 0.40 0.39 0.38 0.37 0.37 0.36 0.35 0.34 0.34 0.33 0.33 0.33 0.33 0.32 0.30 0.28 0.27 0.25 0.25 0.26 0.25 0.24 0.23 0.23 0.23 0.23 0.22 0.21 0.20 0.19 0.18 0.17 0.17 0.16 0.16
0.45 0.45 0.44 0.44 0.43 0.43 0.42 0.40 0.39 0.38 0.37 0.36 0.35 0.34 0.34 0.33 0.33 0.33 0.33 0.34 0.33 0.30 0.27 0.25 0.26 0.26 0.25 0.24 0.23 0.22 0.22 0.23 0.22 0.21 0.20 0.19 0.18 0.18 0.17 0.17 0.16 0.16
0.45 0.45 0.45 0.44 0.43 0.42 0.40 0.39 0.38 0.37 0.36 0.35 0.34 0.34 0.34 0.34 0.34 0.34 0.35 0.34 0.32 0.29 0.27 0.26 0.26 0.25 0.24 0.23 0.22 0.22 0.22 0.21 0.20 0.19 0.19 0.18 0.18 0.18 0.17 0.17 0.17 0.16
0.43 0.43 0.42 0.41 0.41 0.39 0.38 0.38 0.37 0.36 0.36 0.36 0.35 0.34 0.33 0.33 0.33 0.34 0.35 0.33 0.31 0.29 0.28 0.26 0.24 0.23 0.23 0.22 0.22 0.21 0.21 0.20 0.20 0.19 0.19 0.18 0.17 0.17 0.17 0.17 0.17 0.17
0.42 0.41 0.40 0.39 0.39 0.38 0.37 0.36 0.36 0.35 0.34 0.34 0.33 0.33 0.32 0.33 0.34 0.35 0.34 0.32 0.30 0.29 0.27 0.25 0.23 0.22 0.22 0.22 0.21 0.21 0.21 0.20 0.19 0.18 0.18 0.18 0.17 0.17 0.17 0.17 0.17 0.17
0.42 0.42 0.40 0.39 0.37 0.36 0.35 0.35 0.35 0.34 0.35 0.35 0.34 0.33 0.33 0.34 0.34 0.34 0.33 0.31 0.30 0.28 0.27 0.25 0.23 0.22 0.21 0.21 0.20 0.20 0.20 0.20 0.19 0.19 0.18 0.17 0.17 0.17 0.17 0.17 0.17 0.17
0.42 0.40 0.39 0.38 0.36 0.34 0.33 0.32 0.32 0.32 0.33 0.33 0.33 0.33 0.33 0.34 0.34 0.33 0.31 0.30 0.29 0.28 0.25 0.24 0.22 0.21 0.20 0.20 0.20 0.20 0.20 0.20 0.19 0.18 0.17 0.17 0.17 0.17 0.16 0.16 0.16 0.16

ECMWFNIL_prec_pwat_003.txt.gz
Precipitable_Water
0.37 0.38 0.37 0.37 0.37 0.38 0.39 0.39 0.38 0.37 0.37 0.37 0.36 0.37 0.36 0.35 0.35 0.34 0.33 0.33 0.32 0.32 0.32 0.31 0.31 0.31 0.31 0.31 0.31 0.31 0.31 0.30 0.30 0.29 0.29 0.29 0.29 0.30 0.30 0.31 0.32 0.32
0.38 0.38 0.38 0.38 0.38 0.38 0.38 0.40 0.40 0.39 0.38 0.38 0.37 0.37 0.36 0.36 0.36 0.35 0.34 0.33 0.33 0.32 0.32 0.32 0.31 0.31 0.31 0.31 0.31 0.31 0.31 0.30 0.29 0.31 0.30 0.30 0.30 0.31 0.31 0.32 0.32 0.32
0.39 0.39 0.39 0.39 0.39 0.38 0.38 0.39 0.40 0.41 0.40 0.39 0.38 0.37 0.36 0.36 0.35 0.35 0.35 0.34 0.34 0.34 0.33 0.32 0.32 0.32 0.32 0.32 0.32 0.32 0.31 0.30 0.29 0.30 0.31 0.30 0.31 0.31 0.32 0.33 0.32 0.32
0.40 0.40 0.40 0.40 0.40 0.39 0.39 0.39 0.40 0.41 0.41 0.40 0.40 0.39 0.37 0.36 0.36 0.35 0.35 0.35 0.35 0.35 0.34 0.34 0.33 0.33 0.32 0.33 0.33 0.32 0.32 0.31 0.31 0.31 0.31 0.31 0.32 0.32 0.33 0.34 0.33 0.32
0.40 0.41 0.41 0.41 0.41 0.41 0.40 0.39 0.40 0.40 0.41 0.41 0.41 0.40 0.39 0.38 0.36 0.36 0.35 0.35 0.35 0.35 0.34 0.34 0.34 0.33 0.33 0.33 0.33 0.33 0.32 0.31 0.31 0.31 0.31 0.31 0.31 0.32 0.33 0.33 0.32 0.31
0.41 0.42 0.42 0.42 0.42 0.41 0.41 0.40 0.40 0.41 0.41 0.41 0.41 0.41 0.40 0.39 0.37 0.36 0.35 0.35 0.35 0.35 0.34 0.34 0.34 0.34 0.34 0.34 0.34 0.33 0.32 0.31 0.31 0.31 0.31 0.30 0.31 0.33 0.33 0.32 0.31 0.29
0.41 0.41 0.42 0.43 0.43 0.43 0.41 0.41 0.41 0.42 0.41 0.41 0.41 0.40 0.40 0.39 0.38 0.37 0.36 0.35 0.35 0.35 0.35 0.35 0.34 0.34 0.34 0.34 0.34 0.33 0.32 0.31 0.31 0.31 0.31 0.31 0.31 0.31 0.32 0.31 0.30 0.29
0.42 0.43 0.44 0.44 0.44 0.43 0.43 0.42 0.42 0.42 0.42 0.42 0.41 0.41 0.41 0.40 0.39 0.37 0.36 0.36 0.35 0.35 0.35 0.35 0.35 0.35 0.35 0.35 0.34 0.33 0.31 0.31 0.31 0.31 0.31 0.31 0.31 0.30 0.30 0.30 0.29 0.28
0.43 0.43 0.43 0.43 0.43 0.43 0.43 0.43 0.43 0.43 0.43 0.42 0.41 0.41 0.41 0.40 0.39 0.38 0.37 0.37 0.36 0.36 0.36 0.36 0.36 0.35 0.35 0.34 0.34 0.33 0.31 0.31 0.31 0.31 0.30 0.30 0.30 0.30 0.29 0.30 0.29 0.28
0.42 0.42 0.42 0.43 0.43 0.44 0.44 0.43 0.44 0.43 0.43 0.42 0.41 0.41 0.40 0.40 0.39 0.38 0.38 0.37 0.37 0.36 0.36 0.36 0.36 0.35 0.35 0.35 0.34 0.33 0.32 0.31 0.31 0.30 0.30 0.30 0.30 0.30 0.30 0.29 0.28 0.27
0.42 0.42 0.42 0.42 0.43 0.44 0.44 0.44 0.43 0.43 0.43 0.42 0.41 0.41 0.40 0.39 0.38 0.38 0.38 0.37 0.37 0.36 0.36 0.36 0.36 0.36 0.35 0.34 0.34 0.34 0.32 0.31 0.30 0.30 0.30 0.30 0.30 0.30 0.29 0.28 0.27 0.26
0.42 0.42 0.42 0.42 0.43 0.44 0.44 0.44 0.43 0.43 0.43 0.42 0.41 0.40 0.40 0.39 0.38 0.38 0.37 0.37 0.37 0.37 0.37 0.36 0.36 0.36 0.35 0.34 0.34 0.33 0.32 0.31 0.31 0.31 0.31 0.30 0.30 0.29 0.28 0.27 0.26 0.25
0.43 0.43 0.43 0.42 0.42 0.43 0.43 0.44 0.44 0.43 0.43 0.42 0.41 0.41 0.40 0.39 0.38 0.37 0.37 0.37 0.37 0.36 0.35 0.35 0.35 0.34 0.34 0.33 0.33 0.32 0.31 0.30 0.30 0.30 0.30 0.29 0.28 0.27 0.27 0.26 0.25 0.25
0.44 0.44 0.43 0.43 0.43 0.44 0.44 0.44 0.43 0.43 0.42 0.42 0.42 0.41 0.40 0.38 0.37 0.36 0.36 0.36 0.35 0.35 0.35 0.35 0.34 0.34 0.33 0.33 0.32 0.31 0.30 0.30 0.29 0.28 0.28 0.27 0.27 0.26 0.25 0.25 0.25 0.24
0.44 0.44 0.44 0.44 0.44 0.44 0.44 0.43 0.43 0.43 0.43 0.42 0.42 0.40 0.39 0.38 0.37 0.36 0.35 0.35 0.35 0.35 0.35 0.35 0.34 0.33 0.33 0.33 0.33 0.31 0.30 0.29 0.28 0.28 0.27 0.26 0.26 0.25 0.25 0.24 0.24 0.24
0.46 0.46 0.46 0.46 0.45 0.45 0.44 0.44 0.43 0.43 0.42 0.41 0.40 0.39 0.38 0.38 0.37 0.36 0.35 0.34 0.34 0.34 0.34 0.34 0.34 0.34 0.34 0.34 0.33 0.31 0.29 0.28 0.28 0.27 0.27 0.26 0.26 0.26 0.25 0.25 0.25 0.24
0.46 0.46 0.46 0.45 0.45 0.45 0.44 0.44 0.43 0.43 0.42 0.42 0.41 0.41 0.40 0.39 0.38 0.36 0.35 0.35 0.34 0.34 0.34 0.34 0.34 0.33 0.33 0.33 0.32 0.30 0.29 0.28 0.28 0.28 0.28 0.28 0.28 0.27 0.26 0.25 0.24 0.24
0.47 0.46 0.46 0.46 0.46 0.46 0.45 0.44 0.44 0.44 0.43 0.43 0.43 0.42 0.41 0.40 0.39 0.38 0.37 0.37 0.36 0.35 0.34 0.34 0.34 0.34 0.34 0.33 0.32 0.32 0.30 0.29 0.29 0.29 0.30 0.30 0.29 0.27 0.25 0.25 0.24 0.24
0.47 0.47 0.47 0.47 0.47 0.47 0.46 0.45 0.45 0.44 0.44 0.44 0.43 0.43 0.42 0.40 0.38 0.37 0.36 0.35 0.34 0.34 0.33 0.33 0.33 0.33 0.32 0.32 0.33 0.33 0.33 0.32 0.32 0.32 0.31 0.30 0.28 0.26 0.25 0.24 0.24 0.23
0.48 0.48 0.48 0.48 0.47 0.46 0.45 0.45 0.44 0.44 0.44 0.44 0.44 0.42 0.40 0.38 0.36 0.35 0.34 0.33 0.33 0.32 0.31 0.31 0.31 0.31 0.32 0.33 0.33 0.33 0.32 0.33 0.33 0.32 0.31 0.29 0.27 0.26 0.25 0.24 0.23 0.23
0.49 0.48 0.47 0.47 0.46 0.45 0.44 0.43 0.43 0.43 0.43 0.42 0.41 0.39 0.37 0.36 0.34 0.32 0.31 0.30 0.30 0.29 0.29 0.29 0.29 0.31 0.32 0.33 0.33 0.33 0.33 0.33 0.32 0.31 0.30 0.29 0.28 0.26 0.25 0.23 0.22 0.22
0.49 0.49 0.48 0.47 0.46 0.44 0.43 0.43 0.43 0.42 0.40 0.40 0.39 0.38 0.37 0.35 0.32 0.30 0.28 0.27 0.27 0.27 0.27 0.27 0.28 0.30 0.31 0.31 0.32 0.32 0.32 0.32 0.31 0.30 0.28 0.27 0.25 0.24 0.23 0.22 0.22 0.22
0.49 0.48 0.48 0.47 0.47 0.46 0.44 0.43 0.41 0.40 0.39 0.39 0.38 0.36 0.34 0.31 0.29 0.27 0.26 0.25 0.25 0.25 0.26 0.27 0.28 0.30 0.31 0.31 0.31 0.31 0.31 0.31 0.30 0.28 0.26 0.24 0.23 0.22 0.21 0.21 0.21 0.21
0.49 0.49 0.48 0.48 0.48 0.46 0.45 0.44 0.42 0.40 0.39 0.38 0.36 0.34 0.31 0.29 0.28 0.26 0.25 0.25 0.24 0.23 0.25 0.26 0.28 0.29 0.30 0.30 0.30 0.31 0.31 0.30 0.28 0.25 0.24 0.23 0.21 0.21 0.22 0.22 0.21 0.21
0.49 0.48 0.48 0.47 0.47 0.46 0.45 0.43 0.41 0.39 0.38 0.37 0.36 0.33 0.31 0.29 0.28 0.26 0.25 0.24 0.24 0.23 0.24 0.26 0.28 0.29 0.30 0.30 0.31 0.31 0.31 0.30 0.27 0.24 0.22 0.21 0.21 0.21 0.21 0.21 0.21 0.20
0.48 0.47 0.46 0.46 0.46 0.46 0.44 0.42 0.40 0.39 0.38 0.37 0.35 0.33 0.31 0.29 0.28 0.26 0.24 0.23 0.23 0.24 0.25 0.27 0.28 0.28 0.30 0.31 0.31 0.31 0.31 0.28 0.25 0.23 0.21 0.21 0.21 0.20 0.20 0.20 0.19 0.18

ECMWFNIL_prec_pwat_006.txt.gz
Precipitable_Water
0.39 0.39 0.38 0.38 0.38 0.38 0.38 0.38 0.39 0.39 0.39 0.39 0.39 0.40 0.40 0.39 0.38 0.37 0.36 0.36 0.35 0.33 0.33 0.32 0.32 0.32 0.32 0.32 0.32 0.32 0.32 0.31 0.32 0.32 0.32 0.33 0.32 0.31 0.30 0.30 0.30 0.30
0.39 0.39 0.39 0.39 0.39 0.39 0.40 0.40 0.40 0.40 0.40 0.40 0.40 0.40 0.40 0.40 0.39 0.38 0.37 0.36 0.35 0.34 0.34 0.33 0.33 0.33 0.33 0.33 0.33 0.32 0.33 0.33 0.32 0.34 0.33 0.33 0.33 0.32 0.31 0.31 0.31 0.31
0.40 0.40 0.39 0.39 0.39 0.39 0.40 0.41 0.41 0.40 0.40 0.41 0.41 0.41 0.40 0.40 0.39 0.39 0.38 0.37 0.36 0.35 0.35 0.34 0.34 0.33 0.33 0.33 0.33 0.33 0.33 0.33 0.32 0.33 0.34 0.33 0.34 0.32 0.31 0.32 0.31 0.31
0.41 0.40 0.40 0.40 0.41 0.41 0.41 0.40 0.41 0.41 0.41 0.41 0.41 0.42 0.41 0.41 0.41 0.40 0.38 0.37 0.36 0.35 0.35 0.35 0.34 0.34 0.34 0.34 0.34 0.33 0.33 0.33 0.33 0.34 0.34 0.34 0.34 0.33 0.32 0.32 0.32 0.32
0.41 0.41 0.41 0.42 0.42 0.42 0.41 0.41 0.40 0.40 0.41 0.41 0.42 0.42 0.42 0.42 0.41 0.40 0.39 0.38 0.37 0.36 0.36 0.35 0.35 0.35 0.35 0.35 0.34 0.33 0.33 0.33 0.34 0.34 0.34 0.34 0.35 0.34 0.33 0.33 0.32 0.31
0.44 0.44 0.44 0.43 0.43 0.43 0.42 0.41 0.41 0.41 0.41 0.42 0.42 0.43 0.43 0.43 0.41 0.40 0.39 0.37 0.37 0.36 0.36 0.36 0.36 0.36 0.36 0.36 0.35 0.35 0.35 0.35 0.35 0.35 0.35 0.35 0.35 0.35 0.34 0.33 0.32 0.31
0.44 0.44 0.44 0.44 0.44 0.44 0.43 0.42 0.42 0.42 0.42 0.43 0.44 0.43 0.44 0.43 0.42 0.41 0.39 0.38 0.37 0.36 0.36 0.36 0.36 0.36 0.37 0.37 0.37 0.36 0.36 0.36 0.36 0.36 0.36 0.36 0.36 0.35 0.34 0.33 0.32 0.31
0.45 0.45 0.45 0.45 0.45 0.45 0.44 0.43 0.43 0.44 0.44 0.44 0.43 0.44 0.44 0.43 0.42 0.42 0.41 0.39 0.38 0.37 0.36 0.36 0.36 0.36 0.36 0.37 0.37 0.37 0.37 0.37 0.36 0.36 0.36 0.36 0.36 0.34 0.33 0.33 0.32 0.30
0.46 0.46 0.46 0.46 0.45 0.45 0.45 0.44 0.45 0.45 0.45 0.43 0.43 0.43 0.44 0.44 0.43 0.42 0.41 0.40 0.38 0.37 0.36 0.35 0.35 0.35 0.36 0.37 0.37 0.37 0.36 0.36 0.36 0.36 0.36 0.35 0.35 0.33 0.32 0.32 0.30 0.29
0.46 0.46 0.45 0.45 0.45 0.46 0.46 0.46 0.45 0.45 0.45 0.44 0.44 0.44 0.43 0.44 0.43 0.42 0.41 0.40 0.39 0.38 0.37 0.36 0.35 0.35 0.36 0.37 0.37 0.36 0.36 0.36 0.36 0.35 0.35 0.35 0.34 0.33 0.31 0.29 0.28 0.28
0.45 0.45 0.45 0.45 0.45 0.46 0.47 0.47 0.46 0.45 0.45 0.44 0.44 0.43 0.43 0.43 0.43 0.43 0.42 0.41 0.40 0.39 0.37 0.36 0.35 0.35 0.35 0.35 0.36 0.36 0.36 0.35 0.35 0.34 0.34 0.33 0.33 0.32 0.30 0.29 0.29 0.28
0.44 0.45 0.45 0.45 0.45 0.45 0.46 0.47 0.46 0.45 0.44 0.44 0.44 0.43 0.42 0.42 0.42 0.43 0.43 0.42 0.41 0.39 0.37 0.35 0.34 0.34 0.34 0.33 0.34 0.34 0.34 0.34 0.33 0.33 0.33 0.34 0.34 0.32 0.31 0.30 0.29 0.29
0.43 0.44 0.45 0.45 0.44 0.45 0.46 0.47 0.45 0.44 0.44 0.44 0.44 0.43 0.42 0.41 0.43 0.43 0.43 0.41 0.40 0.39 0.37 0.35 0.34 0.34 0.34 0.33 0.33 0.33 0.33 0.33 0.33 0.33 0.33 0.33 0.33 0.31 0.30 0.29 0.29 0.29
0.42 0.43 0.44 0.45 0.44 0.44 0.44 0.45 0.45 0.44 0.44 0.44 0.44 0.42 0.42 0.43 0.43 0.43 0.42 0.40 0.39 0.38 0.36 0.35 0.35 0.35 0.34 0.34 0.33 0.33 0.33 0.33 0.33 0.33 0.33 0.33 0.32 0.30 0.28 0.28 0.28 0.28
0.42 0.43 0.45 0.46 0.45 0.44 0.44 0.44 0.44 0.45 0.45 0.45 0.44 0.43 0.43 0.43 0.43 0.42 0.41 0.39 0.39 0.37 0.37 0.37 0.36 0.35 0.34 0.33 0.33 0.34 0.34 0.33 0.33 0.33 0.32 0.31 0.29 0.28 0.27 0.26 0.26 0.25
0.43 0.44 0.45 0.46 0.46 0.45 0.45 0.45 0.45 0.45 0.45 0.45 0.44 0.44 0.43 0.43 0.42 0.42 0.41 0.39 0.39 0.39 0.38 0.38 0.37 0.35 0.34 0.34 0.33 0.32 0.32 0.31 0.31 0.30 0.29 0.29 0.28 0.26 0.25 0.24 0.24 0.24
0.45 0.45 0.46 0.47 0.48 0.47 0.47 0.46 0.46 0.45 0.45 0.45 0.45 0.45 0.45 0.44 0.44 0.43 0.41 0.41 0.40 0.40 0.39 0.38 0.36 0.35 0.34 0.33 0.32 0.31 0.29 0.29 0.29 0.28 0.28 0.28 0.27 0.26 0.24 0.24 0.24 0.24
0.46 0.45 0.46 0.47 0.48 0.48 0.48 0.47 0.46 0.47 0.47 0.46 0.46 0.46 0.46 0.46 0.44 0.43 0.42 0.42 0.41 0.41 0.39 0.38 0.35 0.34 0.33 0.32 0.31 0.30 0.29 0.28 0.27 0.27 0.26 0.26 0.25 0.24 0.24 0.24 0.24 0.24
0.46 0.46 0.46 0.46 0.48 0.48 0.47 0.46 0.47 0.48 0.47 0.47 0.47 0.48 0.47 0.46 0.45 0.44 0.43 0.43 0.43 0.42 0.40 0.37 0.35 0.34 0.33 0.31 0.30 0.28 0.27 0.25 0.24 0.24 0.24 0.24 0.24 0.25 0.25 0.25 0.25 0.25
0.48 0.48 0.47 0.47 0.47 0.48 0.47 0.48 0.48 0.48 0.49 0.49 0.50 0.49 0.49 0.48 0.46 0.45 0.45 0.45 0.44 0.42 0.40 0.37 0.34 0.32 0.31 0.30 0.29 0.28 0.26 0.24 0.23 0.22 0.22 0.23 0.24 0.25 0.25 0.25 0.26 0.27
0.49 0.49 0.48 0.48 0.48 0.48 0.49 0.50 0.50 0.50 0.51 0.52 0.51 0.51 0.50 0.49 0.48 0.47 0.46 0.45 0.44 0.42 0.39 0.35 0.32 0.31 0.30 0.29 0.29 0.28 0.26 0.24 0.23 0.23 0.23 0.24 0.25 0.25 0.26 0.26 0.27 0.27
0.49 0.49 0.49 0.49 0.49 0.50 0.51 0.51 0.51 0.52 0.52 0.52 0.51 0.51 0.50 0.49 0.48 0.47 0.46 0.44 0.43 0.41 0.37 0.33 0.31 0.30 0.30 0.29 0.29 0.28 0.28 0.25 0.24 0.24 0.25 0.26 0.26 0.27 0.28 0.28 0.27 0.26
0.49 0.50 0.50 0.49 0.50 0.51 0.51 0.51 0.51 0.51 0.51 0.51 0.49 0.49 0.49 0.48 0.48 0.47 0.47 0.44 0.42 0.39 0.35 0.32 0.30 0.30 0.31 0.30 0.29 0.29 0.29 0.27 0.26 0.26 0.27 0.28 0.29 0.29 0.29 0.28 0.28 0.26
0.49 0.50 0.50 0.50 0.51 0.51 0.51 0.51 0.51 0.51 0.51 0.52 0.50 0.49 0.48 0.48 0.48 0.47 0.45 0.43 0.40 0.37 0.34 0.31 0.29 0.29 0.30 0.30 0.29 0.29 0.28 0.27 0.27 0.27 0.28 0.29 0.29 0.29 0.29 0.28 0.27 0.26
0.49 0.49 0.49 0.50 0.50 0.50 0.51 0.51 0.51 0.52 0.52 0.51 0.50 0.49 0.48 0.47 0.45 0.44 0.43 0.42 0.40 0.36 0.34 0.30 0.29 0.29 0.31 0.30 0.29 0.29 0.29 0.28 0.28 0.28 0.28 0.28 0.28 0.28 0.27 0.26 0.25 0.25
0.48 0.49 0.49 0.50 0.51 0.52 0.52 0.52 0.52 0.50 0.50 0.49 0.48 0.47 0.46 0.45 0.44 0.43 0.41 0.40 0.39 0.36 0.34 0.32 0.29 0.30 0.31 0.30 0.30 0.29 0.29 0.28 0.28 0.28 0.27 0.28 0.28 0.27 0.25 0.25 0.25 0.23

ECMWFNIL_prec_pwat_009.txt.gz
Precipitable_Water
0.41 0.41 0.41 0.40 0.40 0.40 0.40 0.40 0.40 0.40 0.40 0.41 0.40 0.41 0.42 0.42 0.43 0.42 0.40 0.38 0.36 0.35 0.34 0.34 0.34 0.33 0.33 0.33 0.33 0.33 0.33 0.32 0.32 0.33 0.33 0.33 0.33 0.34 0.34 0.34 0.34 0.34
0.42 0.42 0.41 0.41 0.41 0.41 0.41 0.41 0.41 0.40 0.40 0.41 0.42 0.42 0.43 0.43 0.43 0.42 0.41 0.39 0.37 0.35 0.35 0.34 0.34 0.33 0.33 0.33 0.33 0.33 0.33 0.33 0.32 0.34 0.33 0.33 0.33 0.34 0.34 0.34 0.35 0.35
0.44 0.43 0.42 0.41 0.41 0.40 0.41 0.41 0.41 0.41 0.41 0.42 0.43 0.43 0.43 0.44 0.43 0.43 0.42 0.40 0.38 0.36 0.35 0.35 0.34 0.34 0.34 0.34 0.34 0.33 0.33 0.32 0.32 0.33 0.33 0.33 0.34 0.34 0.34 0.35 0.35 0.35
0.44 0.44 0.43 0.43 0.42 0.42 0.42 0.42 0.42 0.42 0.43 0.43 0.44 0.44 0.45 0.45 0.44 0.44 0.43 0.42 0.40 0.38 0.37 0.36 0.35 0.35 0.35 0.35 0.34 0.33 0.33 0.33 0.33 0.34 0.34 0.34 0.35 0.35 0.35 0.35 0.36 0.36
0.44 0.44 0.44 0.44 0.44 0.44 0.44 0.43 0.43 0.43 0.43 0.44 0.45 0.46 0.45 0.45 0.44 0.44 0.43 0.42 0.41 0.39 0.38 0.37 0.37 0.36 0.36 0.35 0.34 0.33 0.33 0.33 0.33 0.34 0.34 0.34 0.35 0.35 0.36 0.36 0.36 0.35
0.44 0.44 0.44 0.44 0.44 0.44 0.43 0.43 0.44 0.44 0.45 0.45 0.46 0.46 0.46 0.46 0.45 0.45 0.44 0.43 0.43 0.41 0.40 0.39 0.38 0.37 0.36 0.35 0.34 0.33 0.33 0.33 0.34 0.34 0.34 0.34 0.35 0.36 0.36 0.36 0.36 0.35
0.45 0.45 0.45 0.45 0.45 0.45 0.44 0.44 0.44 0.45 0.46 0.47 0.47 0.47 0.47 0.46 0.45 0.45 0.45 0.44 0.43 0.42 0.42 0.40 0.39 0.37 0.37 0.35 0.35 0.34 0.34 0.34 0.34 0.35 0.34 0.35 0.36 0.36 0.37 0.36 0.36 0.35
0.45 0.46 0.46 0.46 0.45 0.45 0.45 0.46 0.46 0.46 0.46 0.47 0.47 0.48 0.48 0.47 0.46 0.45 0.45 0.45 0.44 0.43 0.42 0.41 0.39 0.38 0.37 0.36 0.35 0.34 0.34 0.34 0.34 0.34 0.34 0.34 0.35 0.35 0.35 0.35 0.36 0.35
0.45 0.45 0.46 0.46 0.46 0.46 0.46 0.46 0.47 0.47 0.48 0.47 0.47 0.48 0.48 0.47 0.46 0.46 0.46 0.45 0.45 0.44 0.43 0.42 0.40 0.39 0.38 0.36 0.35 0.34 0.34 0.34 0.34 0.34 0.34 0.33 0.34 0.34 0.34 0.35 0.35 0.35
0.45 0.45 0.45 0.45 0.45 0.46 0.46 0.46 0.46 0.46 0.47 0.47 0.47 0.47 0.47 0.48 0.47 0.46 0.46 0.45 0.44 0.44 0.43 0.42 0.40 0.39 0.37 0.36 0.35 0.34 0.34 0.34 0.34 0.34 0.34 0.34 0.34 0.34 0.34 0.34 0.33 0.33
0.43 0.43 0.43 0.44 0.44 0.45 0.45 0.46 0.45 0.45 0.46 0.46 0.46 0.46 0.47 0.47 0.47 0.47 0.45 0.45 0.44 0.43 0.43 0.41 0.40 0.39 0.37 0.36 0.35 0.35 0.35 0.34 0.34 0.34 0.34 0.33 0.33 0.33 0.33 0.32 0.32 0.31
0.45 0.43 0.41 0.42 0.44 0.45 0.45 0.46 0.46 0.45 0.45 0.46 0.46 0.46 0.46 0.46 0.46 0.46 0.46 0.45 0.44 0.43 0.42 0.41 0.40 0.39 0.38 0.36 0.36 0.36 0.35 0.35 0.34 0.34 0.33 0.33 0.33 0.33 0.32 0.32 0.31 0.31
0.44 0.45 0.44 0.41 0.41 0.43 0.45 0.45 0.45 0.45 0.45 0.45 0.46 0.46 0.45 0.45 0.45 0.45 0.46 0.45 0.44 0.43 0.42 0.42 0.41 0.40 0.38 0.37 0.37 0.37 0.36 0.35 0.34 0.34 0.33 0.33 0.33 0.33 0.32 0.32 0.31 0.31
0.44 0.45 0.46 0.44 0.41 0.41 0.42 0.43 0.44 0.44 0.45 0.45 0.45 0.45 0.45 0.45 0.45 0.45 0.46 0.46 0.45 0.44 0.43 0.42 0.42 0.41 0.40 0.39 0.38 0.38 0.37 0.36 0.34 0.33 0.34 0.34 0.33 0.33 0.32 0.32 0.31 0.31
0.45 0.46 0.47 0.46 0.41 0.39 0.41 0.42 0.43 0.44 0.45 0.45 0.45 0.45 0.45 0.46 0.45 0.45 0.45 0.46 0.46 0.44 0.43 0.43 0.42 0.41 0.41 0.40 0.40 0.40 0.39 0.36 0.34 0.34 0.34 0.33 0.33 0.32 0.32 0.32 0.31 0.30
0.45 0.46 0.47 0.46 0.45 0.43 0.42 0.42 0.43 0.43 0.43 0.44 0.44 0.45 0.46 0.46 0.45 0.45 0.45 0.45 0.45 0.44 0.44 0.44 0.43 0.43 0.42 0.42 0.41 0.40 0.39 0.37 0.35 0.36 0.35 0.33 0.32 0.32 0.31 0.30 0.29 0.28
0.48 0.47 0.48 0.47 0.46 0.46 0.45 0.43 0.43 0.43 0.43 0.43 0.44 0.46 0.47 0.47 0.46 0.46 0.46 0.46 0.45 0.45 0.45 0.45 0.45 0.44 0.44 0.43 0.42 0.41 0.39 0.37 0.36 0.36 0.34 0.33 0.32 0.30 0.29 0.28 0.27 0.26
0.50 0.49 0.48 0.48 0.47 0.46 0.45 0.44 0.44 0.44 0.43 0.44 0.45 0.46 0.48 0.48 0.47 0.46 0.46 0.46 0.46 0.46 0.46 0.46 0.46 0.45 0.45 0.44 0.44 0.42 0.39 0.38 0.37 0.35 0.33 0.32 0.31 0.29 0.28 0.26 0.25 0.24
0.51 0.50 0.49 0.48 0.48 0.47 0.45 0.45 0.45 0.46 0.45 0.45 0.45 0.46 0.47 0.48 0.48 0.47 0.46 0.47 0.47 0.47 0.46 0.47 0.47 0.46 0.46 0.45 0.44 0.43 0.40 0.38 0.37 0.35 0.33 0.32 0.30 0.27 0.25 0.24 0.24 0.23
0.52 0.51 0.50 0.49 0.48 0.47 0.46 0.46 0.47 0.47 0.47 0.47 0.46 0.46 0.46 0.47 0.48 0.48 0.47 0.47 0.48 0.47 0.48 0.48 0.47 0.47 0.47 0.47 0.46 0.44 0.42 0.40 0.37 0.35 0.33 0.30 0.28 0.26 0.25 0.24 0.24 0.23
0.52 0.51 0.50 0.49 0.49 0.47 0.46 0.46 0.47 0.47 0.47 0.47 0.47 0.46 0.45 0.47 0.48 0.48 0.48 0.47 0.47 0.48 0.48 0.48 0.48 0.48 0.49 0.48 0.47 0.46 0.45 0.41 0.37 0.35 0.32 0.29 0.27 0.27 0.26 0.25 0.24 0.23
0.53 0.52 0.51 0.50 0.49 0.48 0.46 0.45 0.46 0.47 0.47 0.48 0.48 0.47 0.47 0.47 0.49 0.49 0.48 0.47 0.48 0.49 0.48 0.48 0.48 0.50 0.49 0.49 0.49 0.48 0.47 0.41 0.38 0.34 0.31 0.29 0.28 0.27 0.26 0.25 0.24 0.24
0.53 0.51 0.50 0.50 0.48 0.47 0.46 0.46 0.46 0.47 0.48 0.49 0.48 0.48 0.47 0.47 0.48 0.49 0.49 0.50 0.50 0.51 0.50 0.51 0.50 0.51 0.52 0.51 0.50 0.49 0.47 0.42 0.37 0.33 0.30 0.29 0.28 0.27 0.26 0.25 0.25 0.24
0.54 0.53 0.51 0.50 0.50 0.49 0.48 0.48 0.48 0.48 0.49 0.49 0.48 0.48 0.48 0.48 0.49 0.50 0.51 0.52 0.52 0.51 0.51 0.51 0.50 0.50 0.51 0.51 0.50 0.49 0.47 0.42 0.37 0.33 0.31 0.29 0.28 0.28 0.27 0.26 0.26 0.25
0.53 0.53 0.53 0.53 0.52 0.51 0.51 0.49 0.49 0.48 0.49 0.50 0.49 0.49 0.49 0.49 0.50 0.50 0.52 0.53 0.52 0.52 0.53 0.51 0.50 0.49 0.51 0.50 0.51 0.50 0.47 0.42 0.36 0.33 0.30 0.29 0.28 0.28 0.28 0.27 0.26 0.26
0.52 0.52 0.52 0.52 0.52 0.51 0.50 0.50 0.49 0.49 0.49 0.49 0.49 0.49 0.49 0.51 0.52 0.52 0.52 0.52 0.53 0.53 0.52 0.51 0.50 0.49 0.49 0.49 0.50 0.50 0.48 0.42 0.36 0.33 0.30 0.29 0.29 0.28 0.27 0.26 0.26 0.26

ECMWFNIL_prec_pwat_015.txt.gz
Precipitable_Water
0.46 0.45 0.44 0.43 0.42 0.42 0.41 0.41 0.41 0.41 0.41 0.42 0.42 0.42 0.43 0.44 0.46 0.45 0.45 0.44 0.43 0.42 0.42 0.43 0.43 0.42 0.40 0.38 0.36 0.35 0.34 0.33 0.33 0.34 0.34 0.33 0.33 0.33 0.33 0.33 0.33 0.33
0.45 0.46 0.46 0.46 0.45 0.44 0.44 0.43 0.43 0.43 0.43 0.43 0.44 0.45 0.46 0.46 0.46 0.46 0.45 0.44 0.43 0.43 0.45 0.45 0.44 0.42 0.40 0.39 0.38 0.35 0.34 0.34 0.33 0.35 0.34 0.34 0.34 0.34 0.34 0.34 0.33 0.34
0.44 0.45 0.45 0.45 0.45 0.45 0.45 0.46 0.46 0.46 0.45 0.45 0.46 0.46 0.46 0.47 0.46 0.46 0.46 0.45 0.44 0.45 0.46 0.46 0.44 0.43 0.42 0.40 0.38 0.36 0.36 0.36 0.36 0.37 0.36 0.36 0.36 0.35 0.34 0.34 0.34 0.34
0.44 0.45 0.45 0.45 0.46 0.45 0.46 0.46 0.46 0.46 0.46 0.46 0.46 0.47 0.46 0.46 0.46 0.46 0.45 0.45 0.45 0.46 0.47 0.46 0.44 0.43 0.42 0.41 0.41 0.40 0.39 0.38 0.38 0.38 0.37 0.37 0.37 0.36 0.35 0.35 0.35 0.35
0.44 0.44 0.46 0.46 0.47 0.47 0.47 0.46 0.45 0.46 0.46 0.46 0.47 0.47 0.47 0.46 0.46 0.45 0.45 0.45 0.46 0.46 0.46 0.45 0.45 0.45 0.45 0.43 0.43 0.41 0.40 0.39 0.39 0.39 0.38 0.37 0.37 0.37 0.36 0.36 0.35 0.35
0.47 0.46 0.46 0.46 0.46 0.47 0.47 0.47 0.46 0.46 0.46 0.46 0.47 0.48 0.48 0.48 0.48 0.48 0.48 0.48 0.49 0.49 0.48 0.48 0.47 0.47 0.46 0.45 0.44 0.43 0.42 0.41 0.40 0.40 0.38 0.37 0.37 0.38 0.37 0.37 0.36 0.36
0.48 0.48 0.46 0.47 0.47 0.47 0.47 0.47 0.48 0.48 0.48 0.47 0.48 0.47 0.48 0.49 0.48 0.49 0.49 0.49 0.50 0.50 0.50 0.49 0.48 0.48 0.48 0.47 0.46 0.45 0.44 0.43 0.41 0.40 0.39 0.38 0.38 0.38 0.38 0.37 0.37 0.37
0.50 0.50 0.49 0.48 0.47 0.47 0.47 0.47 0.48 0.48 0.49 0.49 0.48 0.49 0.49 0.49 0.49 0.49 0.49 0.49 0.49 0.49 0.49 0.48 0.48 0.48 0.48 0.48 0.47 0.46 0.45 0.44 0.42 0.41 0.40 0.39 0.39 0.38 0.38 0.38 0.38 0.38
0.52 0.52 0.52 0.51 0.49 0.48 0.47 0.47 0.47 0.48 0.48 0.48 0.48 0.49 0.50 0.50 0.50 0.50 0.49 0.50 0.50 0.49 0.49 0.48 0.48 0.49 0.49 0.48 0.47 0.46 0.45 0.44 0.43 0.42 0.41 0.40 0.39 0.39 0.39 0.40 0.39 0.39
0.53 0.53 0.53 0.53 0.52 0.51 0.49 0.49 0.49 0.48 0.48 0.48 0.48 0.48 0.48 0.49 0.50 0.50 0.50 0.50 0.49 0.49 0.49 0.49 0.49 0.48 0.48 0.48 0.47 0.47 0.46 0.45 0.44 0.43 0.42 0.41 0.41 0.41 0.41 0.41 0.40 0.40
0.52 0.53 0.54 0.53 0.52 0.53 0.53 0.52 0.51 0.51 0.50 0.49 0.49 0.48 0.49 0.49 0.49 0.50 0.50 0.49 0.48 0.48 0.48 0.48 0.48 0.47 0.46 0.45 0.46 0.46 0.46 0.45 0.45 0.44 0.43 0.42 0.42 0.42 0.42 0.41 0.41 0.41
0.50 0.51 0.52 0.53 0.53 0.53 0.53 0.53 0.53 0.53 0.52 0.52 0.51 0.50 0.50 0.50 0.49 0.49 0.49 0.49 0.49 0.49 0.48 0.48 0.48 0.48 0.47 0.46 0.46 0.46 0.46 0.45 0.45 0.44 0.44 0.43 0.42 0.42 0.42 0.42 0.41 0.41
0.50 0.50 0.51 0.52 0.53 0.53 0.53 0.53 0.53 0.53 0.53 0.53 0.53 0.53 0.52 0.51 0.51 0.51 0.51 0.50 0.50 0.49 0.49 0.49 0.48 0.48 0.48 0.47 0.46 0.45 0.45 0.45 0.44 0.44 0.44 0.44 0.43 0.43 0.42 0.42 0.42 0.42
0.50 0.51 0.51 0.52 0.53 0.54 0.54 0.54 0.54 0.54 0.54 0.55 0.55 0.54 0.53 0.53 0.52 0.52 0.53 0.52 0.51 0.51 0.50 0.49 0.48 0.47 0.47 0.47 0.46 0.46 0.45 0.45 0.44 0.44 0.44 0.44 0.43 0.43 0.43 0.42 0.42 0.42
0.49 0.50 0.51 0.52 0.53 0.54 0.55 0.55 0.55 0.55 0.55 0.55 0.55 0.55 0.55 0.54 0.54 0.54 0.53 0.52 0.52 0.52 0.51 0.50 0.49 0.48 0.48 0.47 0.47 0.46 0.46 0.45 0.45 0.44 0.44 0.43 0.43 0.43 0.43 0.43 0.42 0.42
0.47 0.48 0.49 0.49 0.50 0.52 0.53 0.54 0.55 0.55 0.55 0.54 0.54 0.55 0.55 0.55 0.54 0.54 0.54 0.53 0.52 0.52 0.52 0.51 0.50 0.50 0.49 0.49 0.48 0.47 0.47 0.46 0.45 0.45 0.44 0.44 0.43 0.43 0.42 0.42 0.42 0.42
0.43 0.44 0.45 0.46 0.47 0.48 0.49 0.51 0.53 0.53 0.54 0.54 0.54 0.53 0.53 0.54 0.54 0.53 0.53 0.54 0.53 0.53 0.52 0.52 0.51 0.51 0.51 0.50 0.49 0.49 0.48 0.47 0.46 0.45 0.45 0.44 0.44 0.43 0.42 0.42 0.42 0.42
0.38 0.40 0.41 0.43 0.44 0.45 0.46 0.48 0.50 0.51 0.52 0.52 0.53 0.53 0.53 0.53 0.53 0.53 0.53 0.53 0.53 0.53 0.52 0.52 0.52 0.52 0.52 0.52 0.51 0.50 0.49 0.47 0.47 0.46 0.45 0.44 0.43 0.43 0.42 0.42 0.42 0.42
0.34 0.35 0.37 0.39 0.41 0.43 0.44 0.45 0.45 0.47 0.49 0.50 0.51 0.53 0.54 0.53 0.52 0.52 0.53 0.52 0.52 0.52 0.52 0.52 0.52 0.53 0.53 0.53 0.53 0.52 0.50 0.48 0.47 0.47 0.46 0.45 0.44 0.43 0.42 0.42 0.42 0.42
0.28 0.30 0.32 0.35 0.37 0.39 0.41 0.42 0.43 0.44 0.46 0.49 0.50 0.51 0.52 0.52 0.52 0.52 0.51 0.52 0.52 0.51 0.51 0.51 0.52 0.52 0.53 0.53 0.53 0.52 0.52 0.50 0.48 0.47 0.46 0.46 0.44 0.43 0.43 0.43 0.43 0.43
0.23 0.25 0.28 0.31 0.33 0.35 0.37 0.38 0.40 0.42 0.43 0.45 0.48 0.49 0.50 0.50 0.51 0.50 0.50 0.50 0.50 0.50 0.49 0.49 0.49 0.50 0.50 0.51 0.51 0.51 0.51 0.51 0.49 0.48 0.47 0.46 0.46 0.45 0.44 0.44 0.44 0.44
0.17 0.19 0.24 0.27 0.29 0.30 0.32 0.33 0.36 0.38 0.40 0.42 0.44 0.46 0.49 0.50 0.51 0.51 0.50 0.50 0.50 0.49 0.48 0.47 0.47 0.48 0.48 0.49 0.49 0.50 0.50 0.50 0.48 0.46 0.46 0.46 0.45 0.44 0.44 0.44 0.44 0.45
0.15 0.15 0.18 0.22 0.25 0.25 0.26 0.28 0.31 0.34 0.36 0.39 0.41 0.43 0.45 0.48 0.49 0.50 0.51 0.50 0.50 0.50 0.48 0.47 0.47 0.47 0.48 0.48 0.48 0.49 0.49 0.49 0.48 0.46 0.45 0.45 0.45 0.45 0.45 0.45 0.46 0.46
0.14 0.15 0.17 0.17 0.17 0.18 0.21 0.24 0.27 0.29 0.32 0.35 0.37 0.39 0.41 0.44 0.47 0.48 0.49 0.50 0.49 0.49 0.50 0.48 0.47 0.48 0.47 0.48 0.47 0.48 0.47 0.46 0.46 0.45 0.43 0.43 0.43 0.44 0.45 0.46 0.46 0.46
0.13 0.14 0.16 0.15 0.14 0.14 0.16 0.18 0.21 0.25 0.28 0.30 0.32 0.35 0.38 0.41 0.43 0.46 0.47 0.49 0.49 0.49 0.49 0.49 0.49 0.48 0.47 0.47 0.46 0.47 0.47 0.46 0.45 0.44 0.43 0.42 0.42 0.43 0.45 0.45 0.45 0.46
0.12 0.13 0.14 0.15 0.14 0.14 0.13 0.14 0.16 0.20 0.23 0.25 0.28 0.31 0.33 0.36 0.39 0.41 0.44 0.47 0.49 0.49 0.50 0.50 0.50 0.50 0.48 0.47 0.46 0.46 0.47 0.46 0.46 0.44 0.43 0.44 0.43 0.43 0.43 0.44 0.44 0.45

ECMWFNIL_prec_pwat_021.txt.gz
Precipitable_Water
0.53 0.53 0.53 0.52 0.52 0.51 0.51 0.51 0.52 0.51 0.52 0.52 0.51 0.51 0.50 0.50 0.51 0.50 0.50 0.50 0.51 0.51 0.51 0.52 0.52 0.52 0.52 0.52 0.51 0.50 0.49 0.48 0.47 0.46 0.43 0.39 0.36 0.35 0.34 0.34 0.35 0.35
0.53 0.54 0.53 0.53 0.52 0.52 0.52 0.53 0.52 0.53 0.53 0.53 0.53 0.53 0.53 0.53 0.53 0.53 0.51 0.50 0.50 0.50 0.50 0.51 0.51 0.51 0.51 0.51 0.51 0.50 0.49 0.47 0.46 0.47 0.44 0.41 0.39 0.37 0.35 0.35 0.35 0.35
0.51 0.52 0.53 0.53 0.52 0.51 0.51 0.53 0.54 0.54 0.54 0.54 0.55 0.55 0.54 0.54 0.53 0.54 0.53 0.52 0.50 0.50 0.50 0.50 0.50 0.50 0.50 0.50 0.50 0.50 0.49 0.47 0.46 0.47 0.45 0.43 0.42 0.39 0.37 0.36 0.35 0.35
0.48 0.49 0.50 0.51 0.51 0.51 0.51 0.51 0.52 0.52 0.53 0.54 0.54 0.55 0.55 0.55 0.55 0.54 0.53 0.53 0.51 0.51 0.51 0.51 0.51 0.50 0.50 0.50 0.50 0.49 0.49 0.48 0.47 0.47 0.46 0.44 0.43 0.41 0.38 0.37 0.36 0.36
0.45 0.46 0.48 0.49 0.50 0.50 0.50 0.51 0.51 0.51 0.50 0.52 0.53 0.55 0.55 0.55 0.54 0.54 0.53 0.52 0.52 0.51 0.51 0.51 0.52 0.52 0.52 0.50 0.49 0.48 0.48 0.47 0.48 0.47 0.45 0.44 0.43 0.42 0.40 0.39 0.37 0.36
0.39 0.42 0.43 0.44 0.47 0.49 0.49 0.49 0.50 0.52 0.52 0.51 0.51 0.53 0.54 0.55 0.55 0.55 0.54 0.53 0.53 0.52 0.51 0.51 0.51 0.52 0.53 0.53 0.52 0.50 0.48 0.47 0.47 0.47 0.46 0.45 0.44 0.43 0.42 0.41 0.39 0.37
0.34 0.35 0.36 0.39 0.41 0.44 0.44 0.45 0.47 0.49 0.52 0.53 0.54 0.53 0.53 0.53 0.54 0.55 0.55 0.55 0.55 0.54 0.53 0.52 0.51 0.50 0.52 0.52 0.52 0.52 0.52 0.50 0.49 0.47 0.46 0.45 0.45 0.44 0.44 0.42 0.41 0.39
0.32 0.32 0.33 0.33 0.34 0.36 0.36 0.39 0.43 0.44 0.48 0.49 0.51 0.53 0.55 0.55 0.55 0.55 0.56 0.56 0.55 0.55 0.55 0.55 0.54 0.53 0.52 0.51 0.51 0.51 0.51 0.52 0.51 0.50 0.48 0.47 0.46 0.45 0.45 0.45 0.44 0.42
0.29 0.28 0.28 0.29 0.29 0.29 0.29 0.31 0.33 0.36 0.39 0.42 0.44 0.48 0.50 0.52 0.54 0.56 0.56 0.57 0.56 0.56 0.56 0.56 0.56 0.55 0.55 0.54 0.52 0.50 0.50 0.51 0.51 0.51 0.50 0.48 0.48 0.47 0.46 0.46 0.45 0.44
0.23 0.23 0.23 0.22 0.22 0.23 0.24 0.25 0.27 0.28 0.29 0.30 0.34 0.37 0.40 0.44 0.48 0.50 0.53 0.55 0.56 0.56 0.56 0.56 0.56 0.56 0.56 0.56 0.55 0.53 0.51 0.50 0.50 0.51 0.51 0.50 0.49 0.48 0.48 0.47 0.46 0.45
0.21 0.21 0.20 0.20 0.20 0.20 0.20 0.19 0.20 0.21 0.23 0.24 0.25 0.28 0.31 0.34 0.37 0.42 0.45 0.49 0.53 0.55 0.56 0.56 0.56 0.56 0.56 0.56 0.56 0.56 0.55 0.53 0.51 0.50 0.50 0.50 0.50 0.49 0.49 0.48 0.47 0.45
0.18 0.18 0.18 0.17 0.17 0.17 0.18 0.19 0.19 0.18 0.18 0.18 0.19 0.20 0.24 0.28 0.30 0.32 0.35 0.40 0.44 0.49 0.54 0.56 0.56 0.56 0.56 0.56 0.56 0.56 0.56 0.55 0.54 0.53 0.51 0.50 0.50 0.50 0.49 0.48 0.47 0.46
0.15 0.16 0.16 0.17 0.17 0.17 0.16 0.17 0.18 0.18 0.17 0.16 0.17 0.17 0.18 0.19 0.21 0.25 0.28 0.31 0.33 0.39 0.44 0.51 0.55 0.57 0.57 0.56 0.56 0.56 0.56 0.55 0.55 0.55 0.54 0.53 0.51 0.50 0.50 0.49 0.48 0.46
0.16 0.16 0.15 0.15 0.14 0.14 0.14 0.15 0.16 0.16 0.17 0.18 0.17 0.15 0.15 0.16 0.16 0.18 0.20 0.23 0.27 0.30 0.34 0.39 0.46 0.52 0.56 0.57 0.57 0.57 0.56 0.56 0.56 0.55 0.55 0.55 0.54 0.52 0.51 0.50 0.49 0.48
0.16 0.16 0.16 0.15 0.14 0.14 0.13 0.12 0.12 0.13 0.14 0.15 0.16 0.16 0.16 0.15 0.15 0.15 0.16 0.16 0.18 0.21 0.26 0.30 0.33 0.38 0.45 0.52 0.56 0.57 0.57 0.56 0.56 0.56 0.56 0.55 0.55 0.55 0.54 0.52 0.50 0.50
0.15 0.16 0.16 0.15 0.15 0.14 0.13 0.13 0.13 0.13 0.13 0.14 0.14 0.14 0.15 0.15 0.16 0.15 0.14 0.14 0.14 0.15 0.17 0.21 0.25 0.29 0.32 0.38 0.47 0.54 0.57 0.57 0.57 0.57 0.57 0.56 0.56 0.56 0.55 0.55 0.54 0.52
0.15 0.15 0.15 0.15 0.14 0.14 0.13 0.13 0.12 0.12 0.13 0.14 0.14 0.14 0.13 0.13 0.14 0.14 0.14 0.14 0.13 0.13 0.13 0.15 0.18 0.22 0.26 0.29 0.33 0.39 0.50 0.56 0.57 0.57 0.57 0.57 0.57 0.56 0.56 0.57 0.56 0.56
0.15 0.14 0.14 0.14 0.13 0.13 0.12 0.12 0.12 0.12 0.14 0.14 0.14 0.14 0.13 0.13 0.13 0.12 0.13 0.13 0.13 0.13 0.13 0.13 0.14 0.16 0.18 0.22 0.26 0.31 0.35 0.43 0.52 0.56 0.57 0.56 0.57 0.57 0.57 0.57 0.57 0.57
0.14 0.13 0.13 0.13 0.12 0.12 0.12 0.12 0.12 0.11 0.11 0.12 0.13 0.13 0.13 0.13 0.13 0.13 0.13 0.12 0.13 0.12 0.12 0.12 0.13 0.13 0.14 0.16 0.19 0.24 0.29 0.33 0.38 0.46 0.54 0.56 0.56 0.56 0.57 0.57 0.57 0.57
0.13 0.13 0.12 0.12 0.12 0.12 0.12 0.12 0.12 0.11 0.12 0.12 0.13 0.13 0.13 0.12 0.12 0.12 0.12 0.13 0.14 0.13 0.13 0.12 0.12 0.12 0.12 0.13 0.15 0.17 0.21 0.27 0.32 0.35 0.42 0.49 0.54 0.56 0.56 0.56 0.57 0.56
0.13 0.13 0.13 0.12 0.12 0.12 0.12 0.12 0.11 0.11 0.11 0.12 0.13 0.12 0.12 0.11 0.11 0.11 0.11 0.12 0.13 0.13 0.13 0.12 0.13 0.12 0.12 0.11 0.12 0.14 0.16 0.20 0.25 0.30 0.34 0.38 0.46 0.52 0.55 0.56 0.57 0.57
0.13 0.12 0.12 0.13 0.12 0.12 0.12 0.11 0.11 0.11 0.11 0.11 0.12 0.13 0.13 0.13 0.12 0.12 0.11 0.11 0.11 0.12 0.12 0.11 0.11 0.13 0.13 0.13 0.12 0.12 0.13 0.16 0.18 0.22 0.27 0.31 0.36 0.43 0.50 0.53 0.55 0.56
0.13 0.12 0.12 0.12 0.13 0.12 0.11 0.11 0.11 0.11 0.11 0.12 0.11 0.12 0.12 0.12 0.11 0.11 0.11 0.11 0.11 0.11 0.11 0.11 0.11 0.12 0.13 0.14 0.13 0.12 0.12 0.13 0.14 0.16 0.20 0.25 0.29 0.34 0.41 0.47 0.52 0.54
0.13 0.12 0.12 0.12 0.13 0.11 0.11 0.11 0.11 0.11 0.11 0.11 0.11 0.11 0.12 0.11 0.11 0.11 0.11 0.11 0.10 0.10 0.10 0.10 0.10 0.11 0.12 0.13 0.13 0.13 0.12 0.12 0.12 0.13 0.14 0.17 0.22 0.28 0.33 0.38 0.45 0.50
0.12 0.12 0.12 0.11 0.12 0.12 0.11 0.10 0.10 0.10 0.10 0.10 0.10 0.11 0.11 0.11 0.11 0.10 0.10 0.10 0.10 0.10 0.10 0.10 0.10 0.10 0.11 0.12 0.12 0.12 0.12 0.13 0.12 0.12 0.12 0.13 0.15 0.20 0.26 0.30 0.36 0.44
0.11 0.10 0.11 0.11 0.10 0.11 0.11 0.11 0.10 0.10 0.09 0.09 0.10 0.10 0.10 0.10 0.10 0.09 0.09 0.09 0.10 0.10 0.10 0.10 0.09 0.09 0.09 0.10 0.11 0.12 0.12 0.12 0.13 0.12 0.12 0.11 0.13 0.15 0.19 0.23 0.29 0.35

ECMWFNIL_prec_pwat_024.txt.gz
Precipitable_Water
0.47 0.47 0.47 0.47 0.47 0.47 0.48 0.49 0.51 0.52 0.54 0.55 0.55 0.55 0.55 0.56 0.57 0.57 0.57 0.58 0.58 0.56 0.55 0.54 0.54 0.53 0.53 0.53 0.52 0.52 0.51 0.51 0.51 0.51 0.51 0.51 0.51 0.51 0.50 0.49 0.46 0.43
0.43 0.44 0.45 0.45 0.45 0.46 0.47 0.47 0.48 0.49 0.51 0.52 0.54 0.55 0.56 0.56 0.57 0.57 0.57 0.58 0.59 0.58 0.57 0.55 0.54 0.54 0.54 0.53 0.53 0.52 0.51 0.50 0.49 0.51 0.50 0.49 0.49 0.49 0.49 0.49 0.48 0.46
0.38 0.38 0.39 0.39 0.40 0.41 0.43 0.44 0.46 0.47 0.48 0.50 0.52 0.53 0.55 0.56 0.56 0.57 0.57 0.57 0.57 0.57 0.57 0.57 0.56 0.55 0.54 0.54 0.54 0.53 0.52 0.51 0.50 0.50 0.50 0.49 0.49 0.48 0.48 0.49 0.48 0.47
0.33 0.34 0.34 0.34 0.35 0.35 0.36 0.37 0.39 0.41 0.43 0.44 0.47 0.49 0.50 0.52 0.54 0.55 0.56 0.56 0.56 0.56 0.57 0.57 0.56 0.56 0.55 0.54 0.53 0.53 0.53 0.53 0.53 0.52 0.50 0.50 0.49 0.49 0.48 0.48 0.47 0.47
0.31 0.30 0.29 0.29 0.30 0.30 0.30 0.31 0.31 0.32 0.34 0.35 0.38 0.41 0.44 0.46 0.48 0.49 0.51 0.54 0.56 0.56 0.56 0.57 0.57 0.57 0.57 0.56 0.56 0.54 0.53 0.52 0.53 0.53 0.51 0.50 0.50 0.50 0.49 0.48 0.47 0.46
0.30 0.29 0.27 0.27 0.27 0.27 0.26 0.26 0.26 0.27 0.28 0.28 0.30 0.31 0.33 0.36 0.38 0.40 0.43 0.45 0.48 0.51 0.55 0.56 0.56 0.56 0.57 0.57 0.56 0.56 0.55 0.54 0.53 0.52 0.51 0.51 0.51 0.51 0.50 0.49 0.48 0.47
0.29 0.27 0.25 0.25 0.24 0.23 0.22 0.23 0.23 0.23 0.23 0.23 0.25 0.25 0.27 0.27 0.29 0.31 0.34 0.37 0.39 0.41 0.43 0.46 0.51 0.54 0.55 0.55 0.55 0.56 0.56 0.56 0.55 0.54 0.52 0.51 0.51 0.51 0.51 0.51 0.49 0.48
0.27 0.26 0.24 0.23 0.21 0.21 0.20 0.20 0.20 0.20 0.20 0.20 0.21 0.21 0.22 0.23 0.24 0.26 0.27 0.29 0.31 0.34 0.37 0.38 0.40 0.43 0.47 0.52 0.54 0.54 0.55 0.56 0.56 0.55 0.54 0.53 0.52 0.50 0.50 0.51 0.51 0.49
0.26 0.24 0.24 0.22 0.21 0.20 0.19 0.19 0.19 0.19 0.20 0.19 0.19 0.18 0.19 0.19 0.20 0.21 0.22 0.23 0.25 0.26 0.29 0.31 0.34 0.36 0.39 0.40 0.44 0.50 0.53 0.54 0.56 0.56 0.56 0.54 0.53 0.53 0.52 0.51 0.50 0.50
0.23 0.24 0.23 0.23 0.22 0.21 0.19 0.19 0.19 0.19 0.19 0.18 0.18 0.18 0.17 0.17 0.17 0.17 0.18 0.18 0.19 0.20 0.21 0.23 0.25 0.28 0.31 0.34 0.37 0.39 0.43 0.49 0.53 0.54 0.55 0.56 0.55 0.55 0.54 0.54 0.52 0.50
0.20 0.21 0.21 0.21 0.20 0.20 0.20 0.20 0.19 0.19 0.20 0.19 0.19 0.19 0.18 0.17 0.17 0.16 0.16 0.15 0.15 0.15 0.16 0.17 0.18 0.20 0.22 0.24 0.29 0.34 0.37 0.40 0.44 0.48 0.52 0.54 0.55 0.55 0.55 0.55 0.54 0.53
0.19 0.18 0.18 0.18 0.18 0.18 0.17 0.17 0.17 0.17 0.18 0.18 0.19 0.19 0.18 0.18 0.17 0.17 0.16 0.15 0.14 0.14 0.14 0.14 0.15 0.16 0.16 0.17 0.19 0.22 0.27 0.32 0.37 0.42 0.45 0.49 0.52 0.54 0.55 0.56 0.55 0.54
0.17 0.17 0.17 0.17 0.17 0.17 0.17 0.16 0.16 0.16 0.16 0.16 0.16 0.17 0.17 0.17 0.17 0.16 0.16 0.16 0.15 0.14 0.13 0.13 0.13 0.13 0.14 0.14 0.15 0.16 0.18 0.20 0.24 0.30 0.37 0.42 0.45 0.49 0.53 0.55 0.56 0.56
0.15 0.16 0.16 0.16 0.17 0.17 0.17 0.16 0.16 0.16 0.15 0.15 0.16 0.15 0.16 0.16 0.16 0.16 0.15 0.15 0.14 0.14 0.13 0.13 0.12 0.12 0.12 0.12 0.13 0.14 0.14 0.15 0.16 0.18 0.22 0.29 0.36 0.42 0.46 0.51 0.54 0.56
0.16 0.16 0.16 0.16 0.16 0.15 0.15 0.15 0.15 0.15 0.15 0.15 0.15 0.15 0.15 0.15 0.16 0.15 0.15 0.14 0.14 0.13 0.13 0.13 0.13 0.12 0.12 0.12 0.12 0.12 0.13 0.13 0.14 0.14 0.16 0.18 0.22 0.28 0.35 0.42 0.47 0.52
0.16 0.16 0.16 0.15 0.15 0.14 0.14 0.14 0.14 0.14 0.14 0.14 0.13 0.13 0.13 0.14 0.14 0.13 0.13 0.13 0.12 0.12 0.13 0.13 0.13 0.13 0.12 0.13 0.13 0.13 0.13 0.13 0.13 0.14 0.14 0.15 0.15 0.18 0.22 0.28 0.35 0.43
0.17 0.16 0.16 0.15 0.14 0.14 0.14 0.13 0.13 0.12 0.12 0.11 0.11 0.11 0.11 0.11 0.12 0.11 0.11 0.12 0.11 0.12 0.12 0.12 0.12 0.13 0.13 0.13 0.13 0.13 0.13 0.13 0.13 0.13 0.14 0.14 0.14 0.14 0.15 0.18 0.22 0.28
0.17 0.17 0.16 0.15 0.14 0.14 0.13 0.12 0.12 0.11 0.11 0.10 0.10 0.09 0.10 0.10 0.10 0.10 0.10 0.11 0.11 0.11 0.11 0.11 0.12 0.12 0.13 0.14 0.14 0.14 0.13 0.13 0.13 0.13 0.13 0.13 0.14 0.14 0.14 0.15 0.16 0.18
0.17 0.16 0.15 0.14 0.14 0.13 0.13 0.12 0.12 0.11 0.11 0.10 0.10 0.10 0.10 0.09 0.09 0.09 0.09 0.09 0.10 0.10 0.10 0.11 0.11 0.12 0.12 0.13 0.14 0.14 0.14 0.14 0.14 0.14 0.13 0.13 0.13 0.14 0.14 0.14 0.15 0.15
0.16 0.15 0.14 0.13 0.13 0.13 0.12 0.12 0.12 0.11 0.11 0.11 0.11 0.11 0.10 0.09 0.09 0.09 0.09 0.09 0.09 0.09 0.09 0.10 0.10 0.11 0.12 0.13 0.13 0.13 0.13 0.14 0.14 0.14 0.14 0.14 0.13 0.14 0.14 0.14 0.14 0.14
0.14 0.14 0.13 0.12 0.12 0.12 0.12 0.12 0.12 0.11 0.11 0.11 0.12 0.11 0.10 0.10 0.09 0.09 0.09 0.09 0.09 0.09 0.09 0.09 0.09 0.09 0.10 0.12 0.13 0.14 0.14 0.14 0.15 0.15 0.14 0.14 0.14 0.14 0.14 0.14 0.14 0.15
0.13 0.12 0.12 0.11 0.11 0.11 0.11 0.11 0.11 0.11 0.11 0.11 0.11 0.11 0.11 0.11 0.10 0.10 0.10 0.10 0.10 0.10 0.10 0.09 0.09 0.09 0.09 0.10 0.11 0.12 0.14 0.15 0.15 0.15 0.14 0.14 0.14 0.14 0.14 0.15 0.15 0.15
0.12 0.11 0.10 0.10 0.11 0.11 0.10 0.10 0.10 0.10 0.10 0.11 0.11 0.11 0.11 0.11 0.10 0.11 0.11 0.11 0.11 0.11 0.11 0.11 0.11 0.10 0.10 0.10 0.10 0.11 0.12 0.13 0.14 0.15 0.15 0.15 0.14 0.14 0.14 0.14 0.14 0.15
0.10 0.10 0.10 0.10 0.10 0.09 0.09 0.10 0.10 0.10 0.11 0.11 0.11 0.11 0.11 0.11 0.12 0.12 0.12 0.12 0.12 0.12 0.12 0.12 0.12 0.12 0.12 0.12 0.12 0.12 0.12 0.11 0.12 0.13 0.14 0.14 0.14 0.14 0.14 0.13 0.13 0.13
0.09 0.09 0.09 0.09 0.09 0.09 0.10 0.10 0.10 0.10 0.10 0.11 0.11 0.12 0.12 0.12 0.12 0.12 0.12 0.13 0.13 0.13 0.13 0.13 0.13 0.13 0.13 0.13 0.13 0.13 0.13 0.13 0.12 0.11 0.12 0.13 0.14 0.14 0.14 0.14 0.13 0.13
0.09 0.09 0.09 0.09 0.09 0.09 0.09 0.09 0.10 0.10 0.11 0.11 0.11 0.11 0.12 0.12 0.12 0.12 0.12 0.12 0.12 0.13 0.12 0.12 0.12 0.12 0.12 0.12 0.13 0.13 0.13 0.13 0.13 0.12 0.10 0.10 0.11 0.12 0.12 0.13 0.13 0.13

ECMWFNIL_prec_pwat_030.txt.gz
Precipitable_Water
0.30 0.31 0.31 0.31 0.31 0.31 0.31 0.31 0.32 0.31 0.30 0.30 0.30 0.30 0.30 0.30 0.31 0.32 0.32 0.32 0.32 0.32 0.34 0.36 0.38 0.40 0.43 0.45 0.47 0.48 0.50 0.51 0.53 0.54 0.55 0.56 0.56 0.57 0.57 0.57 0.58 0.57
0.29 0.29 0.29 0.28 0.28 0.28 0.28 0.28 0.28 0.27 0.27 0.27 0.28 0.27 0.27 0.26 0.27 0.27 0.27 0.27 0.28 0.28 0.29 0.29 0.29 0.30 0.31 0.33 0.35 0.37 0.39 0.42 0.44 0.49 0.51 0.52 0.53 0.54 0.55 0.56 0.57 0.58
0.26 0.26 0.26 0.27 0.26 0.26 0.25 0.24 0.24 0.24 0.25 0.25 0.25 0.25 0.24 0.24 0.24 0.23 0.24 0.23 0.23 0.23 0.23 0.25 0.26 0.27 0.27 0.27 0.27 0.27 0.28 0.30 0.32 0.37 0.40 0.43 0.48 0.50 0.52 0.53 0.54 0.55
0.24 0.24 0.23 0.23 0.23 0.22 0.22 0.21 0.20 0.20 0.21 0.21 0.22 0.22 0.23 0.23 0.23 0.22 0.21 0.21 0.20 0.20 0.20 0.19 0.20 0.21 0.22 0.23 0.24 0.24 0.25 0.24 0.25 0.27 0.28 0.30 0.34 0.39 0.43 0.48 0.50 0.52
0.22 0.20 0.20 0.19 0.19 0.19 0.19 0.18 0.18 0.19 0.19 0.19 0.20 0.20 0.20 0.20 0.20 0.20 0.20 0.20 0.20 0.19 0.18 0.18 0.17 0.17 0.17 0.17 0.18 0.19 0.20 0.22 0.23 0.23 0.23 0.22 0.23 0.26 0.29 0.34 0.38 0.42
0.22 0.21 0.20 0.20 0.19 0.18 0.17 0.17 0.17 0.18 0.18 0.18 0.18 0.19 0.19 0.19 0.19 0.18 0.18 0.17 0.17 0.17 0.17 0.18 0.17 0.17 0.16 0.16 0.16 0.16 0.16 0.16 0.18 0.20 0.21 0.20 0.20 0.21 0.22 0.23 0.25 0.28
0.20 0.20 0.20 0.20 0.19 0.19 0.18 0.18 0.17 0.17 0.17 0.17 0.16 0.16 0.16 0.16 0.16 0.16 0.16 0.16 0.15 0.15 0.14 0.14 0.14 0.15 0.16 0.16 0.15 0.15 0.15 0.15 0.15 0.16 0.17 0.18 0.19 0.19 0.19 0.19 0.19 0.20
0.18 0.18 0.18 0.18 0.17 0.17 0.17 0.17 0.17 0.16 0.16 0.15 0.15 0.15 0.14 0.14 0.13 0.14 0.14 0.14 0.14 0.14 0.13 0.13 0.13 0.12 0.13 0.14 0.14 0.14 0.14 0.14 0.14 0.14 0.14 0.15 0.16 0.17 0.18 0.18 0.18 0.18
0.18 0.18 0.17 0.17 0.17 0.17 0.16 0.16 0.16 0.16 0.16 0.15 0.14 0.14 0.14 0.13 0.13 0.13 0.12 0.12 0.12 0.12 0.12 0.12 0.12 0.11 0.11 0.11 0.11 0.12 0.12 0.12 0.13 0.13 0.13 0.13 0.13 0.14 0.15 0.17 0.18 0.17
0.19 0.19 0.18 0.18 0.17 0.17 0.17 0.16 0.16 0.16 0.16 0.15 0.14 0.15 0.14 0.14 0.14 0.13 0.13 0.12 0.12 0.11 0.11 0.11 0.11 0.11 0.11 0.11 0.11 0.11 0.11 0.11 0.11 0.11 0.11 0.12 0.13 0.14 0.14 0.14 0.15 0.16
0.18 0.18 0.18 0.17 0.17 0.17 0.17 0.17 0.16 0.16 0.16 0.15 0.15 0.14 0.14 0.14 0.14 0.14 0.13 0.13 0.12 0.12 0.12 0.12 0.11 0.11 0.11 0.11 0.11 0.11 0.11 0.11 0.11 0.11 0.11 0.10 0.11 0.11 0.13 0.14 0.14 0.15
0.18 0.18 0.18 0.18 0.18 0.17 0.17 0.17 0.17 0.16 0.16 0.15 0.15 0.14 0.14 0.14 0.13 0.13 0.13 0.12 0.12 0.12 0.13 0.12 0.12 0.12 0.12 0.12 0.12 0.12 0.11 0.11 0.11 0.11 0.11 0.11 0.11 0.10 0.10 0.11 0.12 0.13
0.19 0.19 0.19 0.19 0.19 0.18 0.18 0.17 0.16 0.16 0.15 0.15 0.15 0.14 0.14 0.13 0.13 0.13 0.13 0.12 0.12 0.12 0.12 0.12 0.12 0.12 0.12 0.12 0.12 0.12 0.12 0.11 0.11 0.11 0.12 0.12 0.12 0.12 0.12 0.11 0.11 0.11
0.21 0.21 0.20 0.20 0.20 0.19 0.18 0.17 0.16 0.16 0.15 0.15 0.14 0.13 0.13 0.12 0.12 0.12 0.12 0.12 0.12 0.12 0.12 0.12 0.12 0.11 0.11 0.12 0.12 0.12 0.12 0.12 0.12 0.12 0.12 0.12 0.12 0.12 0.13 0.13 0.13 0.12
0.22 0.22 0.21 0.21 0.20 0.19 0.18 0.17 0.16 0.15 0.14 0.14 0.13 0.12 0.12 0.12 0.11 0.11 0.11 0.11 0.11 0.11 0.11 0.12 0.11 0.11 0.11 0.12 0.12 0.12 0.13 0.13 0.14 0.14 0.14 0.14 0.14 0.14 0.14 0.14 0.13 0.13
0.22 0.22 0.21 0.20 0.19 0.18 0.17 0.16 0.14 0.14 0.13 0.12 0.11 0.11 0.11 0.11 0.10 0.11 0.11 0.11 0.11 0.11 0.11 0.11 0.11 0.11 0.12 0.13 0.14 0.14 0.15 0.15 0.15 0.15 0.15 0.15 0.15 0.14 0.14 0.14 0.14 0.15
0.22 0.21 0.20 0.19 0.18 0.17 0.16 0.14 0.13 0.12 0.11 0.11 0.10 0.10 0.10 0.10 0.11 0.10 0.10 0.11 0.11 0.11 0.11 0.11 0.11 0.11 0.12 0.14 0.14 0.15 0.16 0.16 0.15 0.15 0.15 0.15 0.15 0.15 0.14 0.14 0.15 0.15
0.21 0.20 0.19 0.18 0.17 0.15 0.14 0.12 0.12 0.11 0.10 0.10 0.10 0.10 0.10 0.11 0.11 0.11 0.11 0.11 0.11 0.11 0.11 0.11 0.11 0.12 0.13 0.14 0.14 0.15 0.16 0.16 0.16 0.16 0.15 0.15 0.15 0.15 0.15 0.15 0.15 0.15
0.20 0.18 0.17 0.16 0.15 0.14 0.12 0.11 0.10 0.10 0.10 0.10 0.10 0.10 0.11 0.10 0.10 0.10 0.10 0.11 0.11 0.11 0.11 0.11 0.11 0.12 0.13 0.14 0.14 0.15 0.16 0.16 0.16 0.16 0.15 0.15 0.14 0.14 0.14 0.14 0.14 0.14
0.18 0.17 0.16 0.15 0.13 0.12 0.11 0.10 0.10 0.10 0.10 0.10 0.10 0.10 0.10 0.10 0.10 0.10 0.10 0.10 0.11 0.10 0.10 0.10 0.11 0.12 0.13 0.13 0.14 0.14 0.14 0.15 0.15 0.14 0.14 0.14 0.14 0.14 0.14 0.14 0.14 0.14
0.16 0.15 0.14 0.13 0.11 0.11 0.10 0.10 0.10 0.10 0.10 0.10 0.10 0.10 0.10 0.10 0.10 0.10 0.10 0.10 0.10 0.10 0.10 0.10 0.10 0.11 0.12 0.12 0.12 0.13 0.14 0.14 0.14 0.14 0.13 0.13 0.13 0.14 0.14 0.14 0.14 0.14
0.15 0.14 0.12 0.11 0.10 0.10 0.09 0.09 0.09 0.10 0.10 0.10 0.10 0.10 0.10 0.10 0.10 0.10 0.10 0.10 0.10 0.10 0.10 0.10 0.10 0.11 0.11 0.12 0.12 0.13 0.14 0.14 0.13 0.13 0.12 0.12 0.12 0.12 0.12 0.13 0.14 0.14
0.14 0.12 0.11 0.10 0.10 0.09 0.09 0.09 0.09 0.09 0.10 0.10 0.10 0.10 0.10 0.10 0.10 0.10 0.10 0.10 0.10 0.10 0.10 0.10 0.09 0.10 0.11 0.12 0.13 0.14 0.15 0.14 0.14 0.14 0.14 0.14 0.13 0.14 0.14 0.14 0.14 0.13
0.12 0.11 0.10 0.09 0.09 0.09 0.09 0.09 0.09 0.10 0.10 0.10 0.10 0.10 0.10 0.10 0.10 0.09 0.10 0.10 0.10 0.10 0.10 0.09 0.10 0.11 0.12 0.14 0.15 0.15 0.16 0.15 0.15 0.15 0.14 0.14 0.14 0.15 0.15 0.15 0.15 0.16
0.11 0.10 0.10 0.09 0.09 0.09 0.09 0.09 0.09 0.10 0.10 0.10 0.10 0.10 0.10 0.10 0.09 0.09 0.09 0.10 0.10 0.10 0.10 0.10 0.10 0.11 0.13 0.15 0.15 0.16 0.16 0.16 0.16 0.15 0.14 0.14 0.14 0.14 0.15 0.15 0.15 0.15
0.10 0.10 0.10 0.09 0.09 0.09 0.09 0.10 0.10 0.10 0.10 0.10 0.10 0.10 0.09 0.09 0.09 0.10 0.10 0.10 0.10 0.09 0.09 0.10 0.11 0.13 0.14 0.15 0.16 0.16 0.16 0.16 0.16 0.14 0.13 0.13 0.12 0.12 0.12 0.12 0.13 0.13

ECMWFNIL_prec_pwat_033.txt.gz
Precipitable_Water
0.35 0.34 0.33 0.32 0.32 0.32 0.31 0.31 0.30 0.29 0.28 0.26 0.24 0.23 0.22 0.22 0.21 0.21 0.22 0.22 0.22 0.21 0.21 0.21 0.21 0.21 0.21 0.21 0.22 0.23 0.23 0.24 0.24 0.26 0.26 0.27 0.29 0.32 0.34 0.39 0.44 0.48
0.33 0.32 0.31 0.30 0.29 0.28 0.27 0.26 0.26 0.25 0.25 0.25 0.24 0.23 0.22 0.21 0.20 0.20 0.19 0.18 0.18 0.18 0.19 0.19 0.19 0.19 0.19 0.19 0.19 0.19 0.19 0.19 0.19 0.22 0.21 0.21 0.22 0.23 0.24 0.27 0.29 0.33
0.31 0.30 0.28 0.27 0.25 0.24 0.23 0.23 0.22 0.22 0.22 0.21 0.21 0.21 0.21 0.21 0.20 0.19 0.18 0.17 0.16 0.16 0.16 0.17 0.17 0.17 0.17 0.17 0.17 0.17 0.17 0.17 0.17 0.18 0.18 0.17 0.19 0.19 0.19 0.20 0.21 0.22
0.27 0.27 0.26 0.26 0.25 0.23 0.22 0.20 0.20 0.19 0.19 0.18 0.18 0.19 0.19 0.19 0.18 0.16 0.16 0.15 0.15 0.15 0.15 0.15 0.15 0.15 0.15 0.15 0.15 0.14 0.15 0.15 0.15 0.16 0.16 0.15 0.15 0.16 0.16 0.17 0.18 0.18
0.25 0.25 0.24 0.23 0.23 0.22 0.21 0.19 0.18 0.18 0.18 0.18 0.17 0.17 0.17 0.16 0.15 0.14 0.14 0.14 0.14 0.14 0.14 0.13 0.14 0.13 0.14 0.13 0.13 0.12 0.13 0.13 0.13 0.13 0.13 0.13 0.13 0.14 0.14 0.14 0.14 0.15
0.24 0.24 0.23 0.23 0.22 0.21 0.20 0.19 0.19 0.18 0.18 0.17 0.17 0.17 0.16 0.16 0.15 0.14 0.14 0.14 0.14 0.13 0.13 0.12 0.12 0.12 0.12 0.13 0.13 0.13 0.13 0.12 0.12 0.12 0.12 0.12 0.12 0.12 0.13 0.13 0.12 0.12
0.22 0.22 0.22 0.22 0.21 0.21 0.21 0.20 0.19 0.19 0.18 0.18 0.17 0.16 0.16 0.15 0.15 0.15 0.15 0.14 0.14 0.14 0.13 0.13 0.12 0.12 0.12 0.12 0.11 0.11 0.11 0.12 0.12 0.13 0.12 0.12 0.12 0.11 0.11 0.12 0.12 0.12
0.21 0.21 0.22 0.21 0.21 0.20 0.20 0.20 0.19 0.19 0.18 0.18 0.16 0.16 0.16 0.15 0.15 0.15 0.14 0.14 0.13 0.12 0.12 0.11 0.11 0.11 0.11 0.11 0.11 0.11 0.11 0.11 0.11 0.11 0.11 0.11 0.12 0.12 0.12 0.12 0.12 0.11
0.20 0.20 0.20 0.20 0.19 0.19 0.18 0.18 0.18 0.17 0.18 0.17 0.16 0.16 0.16 0.16 0.15 0.15 0.14 0.14 0.13 0.13 0.12 0.12 0.11 0.11 0.11 0.11 0.11 0.11 0.11 0.11 0.11 0.11 0.11 0.10 0.10 0.10 0.11 0.12 0.12 0.12
0.19 0.19 0.19 0.19 0.19 0.19 0.18 0.18 0.18 0.18 0.18 0.17 0.16 0.16 0.15 0.15 0.15 0.15 0.14 0.14 0.13 0.13 0.13 0.13 0.13 0.13 0.13 0.13 0.13 0.12 0.12 0.11 0.11 0.11 0.11 0.11 0.10 0.10 0.10 0.10 0.11 0.11
0.19 0.20 0.20 0.20 0.19 0.19 0.19 0.19 0.19 0.19 0.19 0.18 0.17 0.16 0.16 0.15 0.15 0.15 0.14 0.13 0.13 0.12 0.12 0.12 0.12 0.13 0.13 0.13 0.13 0.13 0.13 0.13 0.12 0.12 0.12 0.11 0.11 0.11 0.11 0.11 0.11 0.11
0.20 0.20 0.20 0.21 0.21 0.21 0.21 0.20 0.20 0.19 0.19 0.18 0.18 0.16 0.15 0.15 0.14 0.13 0.13 0.12 0.12 0.12 0.12 0.12 0.12 0.12 0.12 0.12 0.12 0.13 0.12 0.12 0.12 0.12 0.12 0.12 0.12 0.12 0.12 0.12 0.12 0.11
0.21 0.21 0.22 0.22 0.22 0.21 0.21 0.21 0.20 0.19 0.18 0.17 0.17 0.15 0.14 0.13 0.12 0.12 0.12 0.12 0.11 0.12 0.11 0.12 0.12 0.12 0.12 0.12 0.12 0.12 0.12 0.12 0.12 0.12 0.12 0.13 0.13 0.13 0.13 0.13 0.13 0.13
0.22 0.22 0.22 0.22 0.22 0.22 0.21 0.20 0.19 0.18 0.17 0.17 0.16 0.14 0.13 0.12 0.12 0.11 0.11 0.12 0.11 0.11 0.11 0.12 0.11 0.11 0.11 0.11 0.11 0.12 0.12 0.13 0.13 0.13 0.13 0.13 0.13 0.13 0.13 0.13 0.14 0.14
0.23 0.23 0.23 0.22 0.22 0.21 0.20 0.19 0.18 0.17 0.16 0.15 0.14 0.13 0.12 0.12 0.12 0.11 0.11 0.10 0.11 0.11 0.11 0.11 0.11 0.11 0.11 0.11 0.12 0.13 0.13 0.13 0.13 0.13 0.13 0.12 0.12 0.13 0.13 0.13 0.14 0.14
0.23 0.22 0.22 0.21 0.20 0.20 0.19 0.18 0.16 0.16 0.15 0.14 0.13 0.12 0.12 0.11 0.11 0.11 0.10 0.10 0.10 0.10 0.10 0.10 0.10 0.11 0.11 0.12 0.13 0.13 0.13 0.13 0.12 0.12 0.12 0.12 0.12 0.12 0.12 0.13 0.13 0.14
0.22 0.21 0.21 0.20 0.19 0.19 0.17 0.16 0.15 0.15 0.14 0.13 0.12 0.11 0.10 0.10 0.10 0.10 0.10 0.10 0.10 0.10 0.10 0.10 0.10 0.10 0.11 0.12 0.12 0.13 0.13 0.13 0.12 0.12 0.12 0.12 0.12 0.12 0.11 0.11 0.12 0.13
0.21 0.20 0.20 0.19 0.18 0.17 0.16 0.15 0.15 0.14 0.13 0.12 0.11 0.10 0.09 0.10 0.09 0.09 0.10 0.10 0.10 0.09 0.09 0.10 0.10 0.10 0.11 0.12 0.12 0.13 0.13 0.13 0.12 0.12 0.12 0.11 0.11 0.11 0.12 0.12 0.12 0.12
0.20 0.19 0.19 0.18 0.16 0.16 0.15 0.15 0.14 0.13 0.12 0.10 0.09 0.09 0.09 0.09 0.09 0.09 0.09 0.09 0.09 0.09 0.09 0.10 0.10 0.10 0.11 0.12 0.12 0.12 0.13 0.13 0.12 0.12 0.12 0.12 0.12 0.12 0.11 0.11 0.11 0.11
0.19 0.18 0.17 0.16 0.16 0.15 0.15 0.14 0.13 0.11 0.10 0.10 0.09 0.09 0.09 0.09 0.09 0.09 0.09 0.09 0.09 0.09 0.09 0.10 0.10 0.10 0.11 0.11 0.12 0.12 0.12 0.13 0.12 0.12 0.12 0.12 0.11 0.11 0.11 0.11 0.11 0.12
0.18 0.17 0.16 0.15 0.15 0.14 0.14 0.13 0.11 0.10 0.09 0.09 0.09 0.09 0.09 0.09 0.09 0.09 0.09 0.09 0.10 0.10 0.10 0.10 0.10 0.10 0.11 0.11 0.12 0.12 0.12 0.13 0.12 0.12 0.11 0.11 0.11 0.11 0.11 0.12 0.13 0.14
0.17 0.16 0.15 0.15 0.14 0.13 0.12 0.11 0.10 0.09 0.09 0.09 0.09 0.09 0.09 0.09 0.09 0.09 0.09 0.10 0.10 0.10 0.10 0.09 0.10 0.10 0.11 0.11 0.11 0.12 0.12 0.12 0.12 0.11 0.11 0.11 0.11 0.12 0.13 0.14 0.15 0.15
0.16 0.15 0.14 0.14 0.13 0.13 0.11 0.11 0.10 0.09 0.09 0.09 0.09 0.09 0.09 0.09 0.09 0.09 0.10 0.10 0.10 0.10 0.10 0.09 0.09 0.10 0.11 0.11 0.12 0.12 0.12 0.11 0.11 0.11 0.11 0.11 0.12 0.13 0.14 0.15 0.16 0.16
0.15 0.14 0.14 0.13 0.13 0.12 0.11 0.10 0.09 0.09 0.09 0.09 0.09 0.09 0.09 0.09 0.09 0.10 0.10 0.10 0.10 0.10 0.10 0.09 0.09 0.10 0.11 0.11 0.11 0.12 0.12 0.11 0.11 0.11 0.11 0.12 0.13 0.14 0.15 0.16 0.16 0.16
0.15 0.14 0.14 0.13 0.12 0.11 0.10 0.09 0.09 0.09 0.09 0.09 0.09 0.09 0.09 0.10 0.10 0.10 0.10 0.10 0.10 0.10 0.10 0.10 0.10 0.10 0.10 0.11 0.11 0.11 0.12 0.12 0.11 0.11 0.11 0.12 0.14 0.15 0.16 0.16 0.15 0.15
0.15 0.14 0.14 0.13 0.12 0.11 0.10 0.09 0.10 0.09 0.09 0.09 0.09 0.09 0.09 0.10 0.10 0.10 0.10 0.10 0.10 0.10 0.10 0.10 0.10 0.10 0.10 0.11 0.11 0.11 0.12 0.12 0.12 0.12 0.12 0.13 0.14 0.15 0.15 0.16 0.15 0.15

ECMWFNIL_prec_pwat_036.txt.gz
Precipitable_Water
0.33 0.32 0.32 0.31 0.31 0.31 0.30 0.29 0.29 0.28 0.27 0.27 0.26 0.25 0.25 0.25 0.25 0.24 0.24 0.23 0.22 0.21 0.20 0.20 0.20 0.20 0.20 0.19 0.20 0.20 0.20 0.20 0.19 0.20 0.18 0.18 0.17 0.17 0.16 0.16 0.16 0.17
0.33 0.32 0.31 0.30 0.29 0.28 0.28 0.27 0.26 0.26 0.24 0.24 0.23 0.22 0.22 0.21 0.21 0.21 0.21 0.21 0.20 0.19 0.19 0.18 0.18 0.18 0.18 0.17 0.17 0.17 0.17 0.18 0.18 0.19 0.18 0.17 0.17 0.16 0.16 0.15 0.15 0.15
0.32 0.30 0.29 0.28 0.28 0.27 0.26 0.26 0.25 0.24 0.23 0.22 0.22 0.21 0.20 0.20 0.19 0.19 0.19 0.19 0.19 0.19 0.19 0.18 0.17 0.16 0.16 0.16 0.16 0.15 0.15 0.16 0.16 0.17 0.17 0.17 0.17 0.16 0.15 0.15 0.14 0.14
0.29 0.29 0.28 0.27 0.26 0.25 0.25 0.24 0.23 0.22 0.21 0.20 0.20 0.20 0.20 0.19 0.19 0.18 0.17 0.17 0.17 0.16 0.17 0.17 0.17 0.17 0.17 0.16 0.15 0.14 0.14 0.14 0.15 0.16 0.15 0.16 0.16 0.16 0.16 0.15 0.15 0.14
0.25 0.25 0.25 0.24 0.23 0.23 0.24 0.23 0.22 0.22 0.20 0.20 0.20 0.20 0.19 0.18 0.17 0.16 0.16 0.16 0.16 0.15 0.15 0.15 0.15 0.15 0.15 0.14 0.14 0.14 0.14 0.14 0.15 0.15 0.14 0.14 0.15 0.15 0.15 0.15 0.14 0.14
0.26 0.25 0.24 0.23 0.23 0.23 0.22 0.22 0.22 0.22 0.22 0.20 0.18 0.17 0.16 0.16 0.15 0.14 0.14 0.14 0.13 0.13 0.13 0.13 0.13 0.13 0.13 0.13 0.13 0.13 0.13 0.13 0.14 0.14 0.13 0.13 0.13 0.14 0.14 0.14 0.13 0.12
0.22 0.22 0.21 0.21 0.20 0.20 0.19 0.19 0.19 0.19 0.18 0.17 0.17 0.16 0.16 0.15 0.15 0.15 0.14 0.14 0.13 0.13 0.13 0.12 0.12 0.12 0.12 0.12 0.12 0.12 0.12 0.12 0.12 0.12 0.11 0.11 0.12 0.12 0.12 0.12 0.12 0.12
0.19 0.19 0.19 0.19 0.18 0.18 0.18 0.19 0.19 0.19 0.19 0.18 0.18 0.18 0.17 0.17 0.16 0.16 0.15 0.15 0.14 0.14 0.14 0.14 0.14 0.13 0.13 0.13 0.12 0.12 0.12 0.12 0.12 0.12 0.11 0.11 0.11 0.10 0.11 0.11 0.11 0.11
0.18 0.18 0.18 0.18 0.18 0.19 0.19 0.20 0.20 0.20 0.20 0.19 0.19 0.19 0.19 0.18 0.17 0.17 0.16 0.16 0.15 0.14 0.14 0.13 0.13 0.13 0.13 0.13 0.12 0.12 0.12 0.12 0.12 0.12 0.11 0.11 0.11 0.11 0.11 0.11 0.11 0.10
0.18 0.19 0.19 0.19 0.19 0.20 0.20 0.21 0.21 0.21 0.21 0.20 0.20 0.19 0.18 0.18 0.18 0.17 0.16 0.15 0.14 0.14 0.13 0.13 0.12 0.12 0.12 0.12 0.12 0.12 0.12 0.12 0.12 0.12 0.12 0.11 0.11 0.11 0.11 0.11 0.11 0.11
0.19 0.19 0.20 0.20 0.20 0.21 0.21 0.21 0.22 0.21 0.21 0.20 0.20 0.19 0.18 0.18 0.17 0.17 0.16 0.14 0.13 0.13 0.12 0.12 0.12 0.12 0.12 0.11 0.12 0.12 0.11 0.11 0.11 0.11 0.11 0.11 0.11 0.11 0.12 0.12 0.12 0.12
0.19 0.20 0.20 0.20 0.21 0.21 0.22 0.22 0.22 0.21 0.21 0.20 0.19 0.18 0.17 0.17 0.16 0.15 0.14 0.13 0.12 0.12 0.12 0.11 0.11 0.11 0.11 0.11 0.11 0.11 0.11 0.11 0.11 0.11 0.11 0.11 0.11 0.11 0.12 0.12 0.12 0.12
0.20 0.20 0.21 0.22 0.22 0.22 0.23 0.22 0.21 0.21 0.20 0.19 0.18 0.17 0.16 0.15 0.14 0.14 0.13 0.12 0.12 0.11 0.11 0.11 0.10 0.10 0.10 0.10 0.10 0.10 0.10 0.11 0.11 0.11 0.11 0.11 0.11 0.11 0.12 0.12 0.12 0.12
0.21 0.22 0.22 0.23 0.23 0.23 0.22 0.21 0.20 0.20 0.19 0.18 0.17 0.15 0.15 0.14 0.13 0.13 0.12 0.12 0.11 0.11 0.10 0.10 0.10 0.10 0.10 0.10 0.10 0.10 0.11 0.11 0.11 0.11 0.11 0.11 0.11 0.11 0.12 0.12 0.12 0.12
0.22 0.23 0.23 0.23 0.22 0.21 0.21 0.20 0.19 0.18 0.17 0.16 0.15 0.14 0.14 0.14 0.13 0.12 0.11 0.11 0.10 0.10 0.10 0.10 0.09 0.09 0.09 0.10 0.10 0.11 0.11 0.11 0.11 0.11 0.11 0.11 0.11 0.11 0.11 0.12 0.11 0.12
0.23 0.23 0.22 0.22 0.21 0.20 0.19 0.18 0.17 0.16 0.16 0.15 0.15 0.14 0.14 0.13 0.12 0.12 0.11 0.10 0.09 0.09 0.09 0.09 0.09 0.09 0.09 0.10 0.12 0.12 0.11 0.11 0.12 0.12 0.12 0.12 0.11 0.11 0.11 0.11 0.11 0.12
0.22 0.21 0.21 0.20 0.19 0.18 0.18 0.17 0.16 0.16 0.15 0.14 0.14 0.13 0.13 0.13 0.12 0.11 0.10 0.09 0.09 0.09 0.09 0.09 0.09 0.09 0.10 0.11 0.12 0.12 0.12 0.12 0.12 0.12 0.12 0.12 0.11 0.11 0.11 0.11 0.11 0.12
0.21 0.20 0.19 0.19 0.18 0.18 0.17 0.16 0.16 0.15 0.14 0.14 0.13 0.13 0.13 0.12 0.11 0.10 0.09 0.09 0.09 0.09 0.09 0.09 0.09 0.09 0.10 0.11 0.12 0.13 0.13 0.13 0.13 0.12 0.12 0.12 0.12 0.11 0.11 0.11 0.11 0.11
0.20 0.19 0.19 0.18 0.18 0.17 0.17 0.16 0.15 0.14 0.14 0.13 0.13 0.13 0.12 0.11 0.10 0.09 0.09 0.09 0.09 0.09 0.08 0.09 0.09 0.09 0.10 0.11 0.12 0.13 0.13 0.13 0.13 0.12 0.12 0.12 0.12 0.12 0.11 0.11 0.11 0.10
0.19 0.19 0.18 0.18 0.17 0.17 0.16 0.15 0.15 0.14 0.13 0.13 0.13 0.12 0.11 0.10 0.09 0.09 0.09 0.09 0.09 0.09 0.08 0.09 0.09 0.10 0.11 0.12 0.12 0.13 0.13 0.13 0.13 0.12 0.12 0.12 0.11 0.11 0.11 0.11 0.10 0.10
0.19 0.18 0.18 0.17 0.17 0.16 0.16 0.15 0.14 0.13 0.13 0.13 0.12 0.12 0.11 0.10 0.09 0.09 0.09 0.09 0.09 0.09 0.09 0.09 0.09 0.10 0.11 0.12 0.12 0.12 0.13 0.13 0.12 0.12 0.12 0.11 0.11 0.11 0.11 0.11 0.11 0.11
0.18 0.17 0.17 0.16 0.16 0.16 0.15 0.14 0.14 0.13 0.13 0.13 0.12 0.12 0.11 0.10 0.09 0.09 0.09 0.09 0.09 0.09 0.09 0.09 0.09 0.10 0.11 0.12 0.12 0.12 0.13 0.12 0.12 0.11 0.11 0.11 0.11 0.11 0.11 0.11 0.11 0.11
0.17 0.17 0.16 0.16 0.16 0.15 0.14 0.14 0.13 0.13 0.13 0.13 0.12 0.11 0.10 0.09 0.09 0.09 0.09 0.09 0.09 0.09 0.09 0.09 0.09 0.10 0.11 0.12 0.12 0.12 0.12 0.12 0.12 0.11 0.11 0.11 0.11 0.11 0.11 0.11 0.11 0.12
0.17 0.17 0.16 0.16 0.16 0.15 0.14 0.14 0.14 0.14 0.13 0.13 0.12 0.10 0.09 0.09 0.09 0.09 0.10 0.10 0.10 0.09 0.10 0.09 0.10 0.11 0.11 0.12 0.12 0.12 0.12 0.12 0.12 0.11 0.11 0.11 0.11 0.11 0.11 0.11 0.12 0.12
0.17 0.17 0.16 0.16 0.15 0.15 0.14 0.14 0.14 0.13 0.13 0.13 0.11 0.10 0.10 0.10 0.10 0.10 0.10 0.10 0.10 0.10 0.10 0.10 0.10 0.10 0.11 0.11 0.12 0.12 0.12 0.12 0.12 0.11 0.11 0.11 0.11 0.11 0.11 0.11 0.12 0.12
0.17 0.17 0.17 0.16 0.15 0.15 0.14 0.14 0.14 0.13 0.13 0.12 0.11 0.10 0.10 0.10 0.10 0.10 0.10 0.10 0.10 0.10 0.10 0.10 0.10 0.10 0.11 0.11 0.12 0.12 0.13 0.13 0.12 0.12 0.11 0.11 0.11 0.11 0.11 0.12 0.12 0.13

ECMWFNIL_prec_pwat_042.txt.gz
Precipitable_Water
0.33 0.33 0.32 0.31 0.30 0.29 0.28 0.28 0.27 0.27 0.27 0.27 0.26 0.26 0.26 0.26 0.25 0.25 0.24 0.23 0.22 0.21 0.21 0.20 0.19 0.19 0.18 0.18 0.17 0.17 0.16 0.16 0.16 0.16 0.16 0.16 0.15 0.15 0.15 0.15 0.15 0.15
0.33 0.32 0.32 0.31 0.30 0.30 0.30 0.29 0.28 0.27 0.27 0.26 0.26 0.26 0.26 0.25 0.25 0.24 0.23 0.23 0.22 0.21 0.21 0.20 0.19 0.18 0.17 0.16 0.16 0.16 0.15 0.15 0.15 0.16 0.15 0.15 0.15 0.15 0.15 0.15 0.15 0.15
0.33 0.33 0.32 0.31 0.31 0.30 0.30 0.29 0.29 0.27 0.26 0.26 0.25 0.24 0.24 0.24 0.23 0.23 0.22 0.21 0.20 0.20 0.19 0.18 0.17 0.17 0.16 0.16 0.16 0.16 0.16 0.16 0.15 0.16 0.16 0.16 0.16 0.15 0.15 0.15 0.15 0.15
0.34 0.33 0.32 0.31 0.30 0.29 0.29 0.28 0.27 0.26 0.26 0.25 0.23 0.23 0.23 0.23 0.22 0.21 0.20 0.19 0.19 0.18 0.18 0.18 0.17 0.17 0.17 0.17 0.16 0.16 0.16 0.15 0.15 0.15 0.15 0.14 0.14 0.14 0.13 0.13 0.13 0.13
0.34 0.33 0.32 0.31 0.30 0.29 0.28 0.27 0.26 0.25 0.24 0.23 0.23 0.22 0.21 0.20 0.20 0.19 0.19 0.19 0.18 0.18 0.18 0.17 0.17 0.17 0.16 0.16 0.16 0.15 0.14 0.14 0.14 0.13 0.13 0.12 0.13 0.13 0.13 0.12 0.12 0.12
0.35 0.35 0.34 0.32 0.31 0.29 0.28 0.26 0.24 0.22 0.21 0.20 0.20 0.20 0.20 0.20 0.19 0.19 0.18 0.18 0.18 0.18 0.17 0.17 0.17 0.16 0.16 0.15 0.14 0.14 0.13 0.12 0.12 0.12 0.11 0.11 0.11 0.12 0.12 0.12 0.12 0.11
0.34 0.34 0.32 0.31 0.29 0.28 0.27 0.25 0.22 0.20 0.20 0.20 0.20 0.20 0.20 0.19 0.19 0.18 0.18 0.18 0.17 0.17 0.17 0.16 0.16 0.15 0.15 0.14 0.13 0.12 0.12 0.12 0.11 0.11 0.11 0.11 0.11 0.11 0.11 0.11 0.11 0.10
0.33 0.32 0.31 0.30 0.29 0.28 0.25 0.22 0.21 0.21 0.21 0.20 0.20 0.20 0.20 0.19 0.19 0.19 0.18 0.18 0.17 0.17 0.16 0.16 0.15 0.14 0.14 0.13 0.12 0.11 0.11 0.11 0.11 0.11 0.10 0.10 0.10 0.10 0.10 0.11 0.11 0.10
0.32 0.31 0.30 0.28 0.26 0.23 0.22 0.22 0.22 0.21 0.21 0.20 0.20 0.20 0.20 0.19 0.19 0.19 0.18 0.18 0.17 0.16 0.16 0.15 0.14 0.13 0.13 0.12 0.11 0.11 0.11 0.10 0.11 0.10 0.10 0.10 0.10 0.10 0.10 0.10 0.10 0.10
0.31 0.30 0.28 0.26 0.24 0.23 0.23 0.23 0.23 0.22 0.21 0.20 0.20 0.20 0.19 0.19 0.19 0.18 0.18 0.17 0.16 0.15 0.14 0.14 0.13 0.12 0.12 0.12 0.11 0.11 0.10 0.10 0.10 0.10 0.10 0.10 0.10 0.10 0.10 0.10 0.10 0.10
0.29 0.28 0.26 0.24 0.24 0.24 0.24 0.25 0.24 0.22 0.21 0.20 0.20 0.19 0.19 0.19 0.18 0.18 0.17 0.16 0.15 0.14 0.13 0.13 0.13 0.12 0.11 0.11 0.11 0.10 0.10 0.10 0.10 0.10 0.10 0.10 0.10 0.10 0.11 0.10 0.10 0.10
0.27 0.26 0.25 0.24 0.24 0.25 0.25 0.25 0.24 0.22 0.21 0.20 0.20 0.19 0.19 0.19 0.18 0.17 0.17 0.15 0.14 0.14 0.13 0.13 0.12 0.12 0.11 0.10 0.10 0.10 0.10 0.10 0.10 0.11 0.11 0.11 0.11 0.11 0.11 0.11 0.11 0.11
0.26 0.25 0.25 0.25 0.25 0.26 0.26 0.25 0.24 0.22 0.21 0.20 0.20 0.19 0.19 0.18 0.18 0.17 0.16 0.15 0.14 0.13 0.13 0.12 0.12 0.11 0.11 0.10 0.10 0.10 0.10 0.11 0.11 0.11 0.11 0.12 0.12 0.12 0.12 0.12 0.11 0.11
0.26 0.25 0.25 0.26 0.27 0.26 0.26 0.25 0.24 0.22 0.21 0.21 0.20 0.19 0.18 0.17 0.17 0.16 0.16 0.15 0.14 0.13 0.12 0.12 0.12 0.11 0.11 0.11 0.10 0.11 0.12 0.12 0.12 0.12 0.12 0.12 0.12 0.12 0.12 0.12 0.12 0.11
0.26 0.26 0.27 0.27 0.27 0.26 0.25 0.24 0.23 0.22 0.21 0.20 0.19 0.18 0.18 0.17 0.17 0.16 0.15 0.14 0.13 0.13 0.12 0.12 0.12 0.11 0.11 0.11 0.12 0.12 0.13 0.12 0.12 0.12 0.12 0.12 0.12 0.12 0.12 0.12 0.12 0.11
0.26 0.26 0.26 0.26 0.26 0.25 0.25 0.24 0.22 0.22 0.21 0.20 0.19 0.18 0.17 0.17 0.17 0.16 0.15 0.14 0.13 0.12 0.12 0.12 0.12 0.12 0.12 0.12 0.13 0.13 0.13 0.13 0.13 0.13 0.13 0.13 0.12 0.12 0.12 0.12 0.12 0.12
0.25 0.25 0.26 0.26 0.26 0.25 0.24 0.22 0.22 0.21 0.20 0.19 0.18 0.17 0.17 0.17 0.17 0.16 0.14 0.14 0.13 0.12 0.12 0.12 0.12 0.11 0.12 0.13 0.13 0.13 0.14 0.13 0.13 0.13 0.13 0.13 0.13 0.12 0.12 0.12 0.12 0.12
0.24 0.24 0.25 0.25 0.24 0.23 0.22 0.22 0.21 0.20 0.19 0.19 0.18 0.17 0.17 0.17 0.16 0.15 0.14 0.13 0.13 0.12 0.12 0.12 0.11 0.12 0.12 0.13 0.13 0.14 0.14 0.14 0.14 0.13 0.13 0.13 0.13 0.12 0.12 0.12 0.11 0.11
0.23 0.23 0.24 0.23 0.22 0.22 0.21 0.20 0.20 0.19 0.19 0.18 0.18 0.17 0.17 0.17 0.16 0.15 0.14 0.13 0.12 0.12 0.12 0.12 0.12 0.12 0.12 0.13 0.13 0.14 0.14 0.14 0.14 0.14 0.13 0.13 0.13 0.12 0.12 0.11 0.11 0.11
0.21 0.22 0.22 0.21 0.21 0.20 0.20 0.19 0.19 0.19 0.19 0.19 0.18 0.17 0.17 0.16 0.16 0.15 0.14 0.13 0.13 0.12 0.12 0.12 0.12 0.12 0.12 0.13 0.14 0.14 0.14 0.14 0.14 0.14 0.13 0.13 0.12 0.12 0.12 0.11 0.11 0.10
0.20 0.20 0.20 0.19 0.19 0.19 0.18 0.18 0.18 0.19 0.19 0.18 0.17 0.17 0.17 0.16 0.16 0.15 0.14 0.14 0.13 0.13 0.12 0.12 0.12 0.12 0.13 0.13 0.13 0.13 0.14 0.14 0.14 0.13 0.13 0.12 0.12 0.12 0.12 0.12 0.11 0.10
0.19 0.18 0.18 0.18 0.18 0.18 0.18 0.18 0.18 0.18 0.18 0.17 0.17 0.17 0.17 0.17 0.17 0.16 0.15 0.14 0.14 0.13 0.13 0.12 0.12 0.12 0.12 0.13 0.13 0.13 0.13 0.13 0.13 0.12 0.12 0.12 0.12 0.12 0.12 0.12 0.11 0.10
0.18 0.18 0.18 0.18 0.18 0.17 0.17 0.17 0.18 0.18 0.18 0.17 0.17 0.17 0.17 0.17 0.17 0.16 0.16 0.15 0.14 0.14 0.13 0.12 0.12 0.12 0.12 0.12 0.13 0.13 0.13 0.12 0.12 0.12 0.12 0.12 0.12 0.12 0.12 0.11 0.11 0.11
0.19 0.19 0.19 0.18 0.17 0.17 0.17 0.18 0.18 0.18 0.18 0.18 0.18 0.18 0.18 0.18 0.17 0.16 0.16 0.15 0.14 0.14 0.13 0.12 0.11 0.12 0.12 0.12 0.12 0.12 0.13 0.12 0.12 0.12 0.12 0.12 0.12 0.12 0.12 0.12 0.12 0.12
0.19 0.19 0.18 0.18 0.17 0.17 0.18 0.18 0.18 0.18 0.18 0.18 0.18 0.18 0.18 0.17 0.17 0.16 0.16 0.15 0.15 0.14 0.13 0.12 0.12 0.11 0.12 0.12 0.12 0.12 0.13 0.13 0.13 0.12 0.12 0.12 0.12 0.12 0.12 0.12 0.12 0.13
0.18 0.18 0.18 0.17 0.17 0.18 0.18 0.18 0.19 0.18 0.18 0.18 0.18 0.17 0.17 0.17 0.17 0.16 0.15 0.15 0.15 0.14 0.13 0.12 0.11 0.11 0.11 0.12 0.12 0.12 0.13 0.13 0.13 0.12 0.12 0.12 0.12 0.12 0.12 0.13 0.13 0.13

ECMWFNIL_prec_pwat_045.txt.gz
Precipitable_Water
0.38 0.37 0.36 0.34 0.33 0.33 0.31 0.30 0.29 0.29 0.28 0.28 0.28 0.28 0.28 0.29 0.29 0.28 0.27 0.26 0.26 0.25 0.24 0.23 0.22 0.21 0.20 0.19 0.19 0.18 0.17 0.17 0.16 0.16 0.16 0.16 0.16 0.15 0.15 0.14 0.15 0.14
0.36 0.35 0.34 0.33 0.33 0.33 0.32 0.31 0.30 0.29 0.29 0.29 0.29 0.29 0.29 0.29 0.28 0.28 0.27 0.25 0.24 0.22 0.21 0.20 0.20 0.19 0.19 0.18 0.19 0.18 0.17 0.17 0.17 0.18 0.17 0.17 0.16 0.15 0.15 0.15 0.15 0.14
0.36 0.35 0.34 0.34 0.34 0.33 0.32 0.32 0.31 0.31 0.30 0.30 0.30 0.30 0.29 0.29 0.27 0.27 0.26 0.24 0.23 0.21 0.20 0.19 0.19 0.19 0.19 0.19 0.19 0.18 0.17 0.17 0.16 0.16 0.16 0.15 0.15 0.14 0.14 0.14 0.13 0.13
0.36 0.36 0.36 0.35 0.35 0.34 0.33 0.32 0.32 0.32 0.32 0.31 0.31 0.31 0.30 0.29 0.28 0.26 0.24 0.23 0.21 0.20 0.19 0.19 0.19 0.19 0.19 0.18 0.18 0.17 0.16 0.16 0.16 0.14 0.14 0.14 0.14 0.13 0.13 0.13 0.13 0.13
0.37 0.37 0.36 0.36 0.35 0.34 0.34 0.33 0.33 0.33 0.32 0.32 0.32 0.31 0.29 0.28 0.26 0.24 0.22 0.20 0.19 0.18 0.19 0.19 0.18 0.18 0.18 0.17 0.17 0.16 0.15 0.14 0.14 0.13 0.12 0.12 0.12 0.12 0.12 0.12 0.12 0.12
0.38 0.38 0.37 0.36 0.35 0.35 0.34 0.33 0.33 0.33 0.33 0.32 0.30 0.29 0.28 0.26 0.23 0.21 0.19 0.19 0.18 0.18 0.18 0.18 0.18 0.17 0.17 0.16 0.16 0.14 0.13 0.12 0.12 0.12 0.11 0.11 0.11 0.11 0.12 0.12 0.12 0.11
0.37 0.36 0.36 0.36 0.36 0.35 0.34 0.34 0.34 0.33 0.32 0.31 0.30 0.28 0.26 0.23 0.21 0.21 0.20 0.19 0.19 0.18 0.18 0.17 0.17 0.17 0.16 0.15 0.14 0.13 0.12 0.12 0.12 0.11 0.10 0.10 0.11 0.10 0.11 0.11 0.11 0.11
0.36 0.36 0.36 0.36 0.36 0.35 0.35 0.34 0.33 0.32 0.31 0.30 0.27 0.25 0.24 0.22 0.22 0.21 0.21 0.20 0.19 0.18 0.18 0.17 0.17 0.16 0.15 0.14 0.13 0.12 0.12 0.12 0.11 0.11 0.10 0.10 0.10 0.10 0.10 0.11 0.11 0.10
0.36 0.36 0.36 0.36 0.36 0.35 0.34 0.33 0.32 0.31 0.29 0.27 0.25 0.24 0.23 0.22 0.22 0.22 0.21 0.20 0.19 0.18 0.18 0.17 0.16 0.15 0.14 0.13 0.12 0.12 0.11 0.11 0.11 0.10 0.10 0.10 0.10 0.10 0.10 0.11 0.10 0.10
0.35 0.36 0.36 0.35 0.34 0.34 0.33 0.32 0.30 0.29 0.28 0.26 0.24 0.23 0.23 0.23 0.23 0.22 0.22 0.21 0.19 0.18 0.17 0.16 0.15 0.14 0.13 0.13 0.12 0.12 0.11 0.11 0.10 0.10 0.10 0.10 0.10 0.10 0.11 0.11 0.11 0.11
0.36 0.36 0.36 0.35 0.34 0.34 0.32 0.31 0.29 0.28 0.26 0.25 0.24 0.23 0.23 0.23 0.23 0.22 0.22 0.21 0.19 0.18 0.16 0.15 0.14 0.13 0.12 0.12 0.12 0.11 0.11 0.10 0.10 0.10 0.10 0.11 0.11 0.11 0.12 0.12 0.11 0.11
0.36 0.36 0.36 0.35 0.34 0.33 0.31 0.30 0.28 0.27 0.26 0.25 0.25 0.24 0.24 0.23 0.22 0.22 0.21 0.20 0.18 0.17 0.15 0.14 0.13 0.13 0.12 0.12 0.11 0.11 0.11 0.11 0.11 0.11 0.11 0.12 0.12 0.12 0.12 0.12 0.12 0.11
0.36 0.36 0.35 0.34 0.33 0.32 0.30 0.29 0.28 0.27 0.26 0.26 0.25 0.25 0.24 0.23 0.23 0.22 0.21 0.19 0.18 0.16 0.15 0.14 0.13 0.12 0.12 0.12 0.11 0.11 0.11 0.11 0.12 0.12 0.12 0.12 0.12 0.12 0.12 0.12 0.12 0.12
0.35 0.35 0.34 0.33 0.32 0.31 0.29 0.28 0.28 0.27 0.26 0.26 0.25 0.25 0.24 0.23 0.22 0.21 0.20 0.18 0.17 0.15 0.15 0.14 0.13 0.12 0.12 0.11 0.11 0.11 0.12 0.12 0.12 0.12 0.12 0.12 0.13 0.13 0.13 0.13 0.13 0.13
0.35 0.34 0.33 0.32 0.31 0.30 0.28 0.27 0.27 0.27 0.26 0.26 0.26 0.25 0.24 0.23 0.22 0.20 0.18 0.17 0.16 0.15 0.15 0.14 0.13 0.12 0.12 0.11 0.11 0.12 0.12 0.13 0.13 0.13 0.12 0.12 0.13 0.13 0.14 0.13 0.13 0.13
0.33 0.33 0.32 0.31 0.30 0.29 0.27 0.27 0.27 0.27 0.26 0.26 0.26 0.25 0.24 0.22 0.20 0.19 0.17 0.16 0.16 0.15 0.15 0.14 0.13 0.12 0.12 0.12 0.12 0.13 0.13 0.13 0.13 0.13 0.13 0.13 0.13 0.13 0.13 0.13 0.13 0.13
0.32 0.31 0.30 0.29 0.29 0.28 0.27 0.27 0.26 0.26 0.26 0.26 0.26 0.24 0.22 0.20 0.19 0.17 0.17 0.16 0.16 0.15 0.15 0.14 0.13 0.12 0.12 0.12 0.13 0.14 0.14 0.14 0.13 0.13 0.14 0.14 0.13 0.13 0.13 0.13 0.12 0.12
0.31 0.29 0.28 0.28 0.28 0.27 0.26 0.26 0.26 0.26 0.26 0.25 0.24 0.23 0.21 0.19 0.18 0.17 0.17 0.16 0.16 0.16 0.15 0.14 0.13 0.13 0.13 0.13 0.14 0.14 0.15 0.14 0.14 0.14 0.14 0.13 0.13 0.13 0.13 0.13 0.12 0.12
0.28 0.27 0.27 0.27 0.27 0.26 0.25 0.25 0.26 0.26 0.25 0.24 0.22 0.21 0.20 0.18 0.17 0.17 0.16 0.16 0.16 0.16 0.15 0.15 0.14 0.14 0.14 0.14 0.14 0.14 0.14 0.15 0.14 0.14 0.13 0.13 0.13 0.13 0.13 0.13 0.12 0.11
0.26 0.26 0.26 0.27 0.26 0.24 0.24 0.24 0.25 0.24 0.23 0.22 0.20 0.20 0.19 0.18 0.17 0.17 0.17 0.16 0.16 0.16 0.16 0.15 0.14 0.14 0.14 0.14 0.14 0.14 0.15 0.15 0.14 0.14 0.14 0.14 0.14 0.13 0.13 0.12 0.11 0.11
0.25 0.26 0.26 0.27 0.25 0.24 0.23 0.23 0.23 0.22 0.20 0.20 0.19 0.18 0.18 0.17 0.17 0.17 0.17 0.17 0.17 0.17 0.16 0.15 0.14 0.14 0.14 0.14 0.15 0.15 0.15 0.15 0.14 0.14 0.14 0.13 0.13 0.13 0.12 0.12 0.12 0.12
0.25 0.26 0.28 0.27 0.24 0.22 0.21 0.20 0.20 0.19 0.19 0.19 0.18 0.18 0.18 0.18 0.18 0.17 0.17 0.17 0.17 0.16 0.15 0.14 0.14 0.15 0.15 0.15 0.15 0.15 0.15 0.14 0.14 0.13 0.13 0.12 0.12 0.12 0.12 0.12 0.12 0.12
0.26 0.27 0.27 0.24 0.22 0.19 0.18 0.17 0.18 0.18 0.18 0.18 0.17 0.17 0.17 0.18 0.17 0.18 0.18 0.18 0.17 0.16 0.15 0.15 0.15 0.15 0.15 0.15 0.14 0.14 0.14 0.13 0.13 0.12 0.12 0.12 0.12 0.12 0.12 0.12 0.13 0.13
0.27 0.26 0.24 0.21 0.19 0.16 0.16 0.16 0.17 0.18 0.18 0.18 0.17 0.17 0.17 0.18 0.18 0.18 0.18 0.17 0.16 0.16 0.15 0.15 0.15 0.15 0.15 0.15 0.14 0.14 0.14 0.13 0.13 0.12 0.12 0.12 0.12 0.12 0.13 0.13 0.13 0.13
0.25 0.23 0.21 0.19 0.17 0.16 0.15 0.16 0.17 0.18 0.18 0.18 0.18 0.18 0.18 0.18 0.18 0.18 0.18 0.17 0.16 0.16 0.16 0.15 0.15 0.15 0.15 0.15 0.14 0.14 0.14 0.13 0.13 0.12 0.11 0.11 0.12 0.12 0.13 0.13 0.13 0.14
0.22 0.21 0.20 0.18 0.17 0.16 0.16 0.17 0.18 0.18 0.18 0.18 0.17 0.18 0.18 0.18 0.18 0.18 0.17 0.16 0.16 0.16 0.16 0.16 0.16 0.16 0.15 0.15 0.14 0.14 0.14 0.14 0.13 0.12 0.11 0.12 0.12 0.12 0.12 0.13 0.14 0.15

ECMWFNIL_prec_pwat_048.txt.gz
Precipitable_Water
0.39 0.39 0.38 0.37 0.37 0.37 0.36 0.34 0.33 0.32 0.32 0.31 0.31 0.31 0.31 0.31 0.31 0.31 0.31 0.31 0.30 0.29 0.28 0.27 0.26 0.25 0.24 0.23 0.21 0.19 0.18 0.17 0.17 0.16 0.16 0.16 0.15 0.15 0.14 0.14 0.14 0.14
0.39 0.39 0.39 0.38 0.38 0.37 0.36 0.34 0.33 0.33 0.32 0.32 0.33 0.33 0.33 0.33 0.33 0.33 0.32 0.31 0.31 0.30 0.29 0.28 0.26 0.24 0.22 0.20 0.19 0.18 0.17 0.17 0.15 0.17 0.16 0.16 0.15 0.14 0.13 0.14 0.14 0.14
0.39 0.39 0.38 0.38 0.37 0.36 0.35 0.35 0.34 0.34 0.34 0.34 0.35 0.34 0.34 0.34 0.34 0.34 0.33 0.32 0.30 0.29 0.28 0.26 0.24 0.22 0.20 0.19 0.19 0.18 0.17 0.16 0.15 0.15 0.15 0.14 0.15 0.14 0.13 0.13 0.13 0.13
0.39 0.39 0.38 0.38 0.37 0.36 0.36 0.36 0.36 0.36 0.35 0.35 0.35 0.35 0.35 0.35 0.34 0.33 0.33 0.31 0.30 0.28 0.26 0.23 0.21 0.19 0.19 0.18 0.18 0.17 0.16 0.16 0.15 0.14 0.13 0.13 0.14 0.13 0.13 0.12 0.12 0.12
0.39 0.39 0.38 0.38 0.38 0.37 0.37 0.36 0.36 0.36 0.36 0.36 0.36 0.36 0.35 0.35 0.34 0.33 0.31 0.30 0.28 0.26 0.24 0.21 0.20 0.19 0.18 0.18 0.18 0.16 0.15 0.14 0.14 0.13 0.12 0.12 0.12 0.12 0.12 0.12 0.11 0.11
0.40 0.39 0.39 0.38 0.38 0.38 0.38 0.37 0.37 0.37 0.36 0.36 0.36 0.36 0.35 0.34 0.33 0.31 0.30 0.28 0.26 0.24 0.22 0.20 0.19 0.19 0.18 0.18 0.17 0.16 0.15 0.14 0.13 0.13 0.12 0.11 0.11 0.11 0.11 0.11 0.11 0.10
0.39 0.39 0.39 0.39 0.39 0.39 0.38 0.38 0.38 0.38 0.37 0.37 0.36 0.35 0.34 0.33 0.31 0.30 0.29 0.27 0.25 0.22 0.20 0.19 0.19 0.18 0.18 0.17 0.16 0.15 0.14 0.13 0.13 0.12 0.11 0.11 0.11 0.10 0.11 0.10 0.10 0.10
0.40 0.40 0.40 0.40 0.39 0.39 0.39 0.39 0.38 0.38 0.37 0.36 0.35 0.34 0.33 0.32 0.31 0.30 0.28 0.26 0.24 0.22 0.21 0.20 0.19 0.19 0.18 0.17 0.15 0.14 0.13 0.13 0.13 0.12 0.11 0.11 0.10 0.10 0.10 0.10 0.10 0.10
0.40 0.40 0.40 0.39 0.39 0.39 0.39 0.39 0.38 0.38 0.37 0.35 0.34 0.34 0.33 0.32 0.31 0.30 0.28 0.26 0.23 0.22 0.21 0.21 0.20 0.19 0.18 0.16 0.15 0.13 0.12 0.12 0.12 0.11 0.11 0.10 0.10 0.10 0.10 0.11 0.10 0.10
0.40 0.40 0.39 0.39 0.39 0.39 0.39 0.38 0.38 0.37 0.36 0.35 0.34 0.34 0.32 0.32 0.31 0.29 0.27 0.25 0.23 0.22 0.22 0.21 0.20 0.19 0.17 0.15 0.14 0.13 0.12 0.12 0.11 0.11 0.11 0.10 0.10 0.10 0.10 0.10 0.10 0.10
0.39 0.39 0.39 0.39 0.39 0.39 0.38 0.38 0.37 0.37 0.37 0.36 0.35 0.33 0.32 0.31 0.30 0.28 0.26 0.24 0.23 0.23 0.22 0.21 0.20 0.18 0.16 0.14 0.13 0.13 0.12 0.11 0.11 0.11 0.11 0.11 0.10 0.10 0.11 0.10 0.10 0.10
0.39 0.39 0.39 0.39 0.38 0.38 0.38 0.37 0.37 0.37 0.36 0.35 0.34 0.32 0.31 0.30 0.29 0.27 0.25 0.24 0.23 0.23 0.22 0.21 0.19 0.17 0.15 0.13 0.13 0.12 0.12 0.11 0.11 0.11 0.11 0.11 0.11 0.11 0.11 0.11 0.11 0.11
0.39 0.39 0.39 0.38 0.38 0.38 0.37 0.37 0.37 0.37 0.36 0.34 0.33 0.32 0.30 0.29 0.27 0.26 0.25 0.24 0.24 0.22 0.21 0.20 0.18 0.15 0.14 0.13 0.13 0.12 0.11 0.11 0.11 0.11 0.11 0.11 0.11 0.11 0.12 0.12 0.12 0.12
0.39 0.39 0.38 0.38 0.38 0.38 0.38 0.37 0.37 0.36 0.35 0.34 0.32 0.31 0.29 0.28 0.26 0.26 0.25 0.25 0.23 0.22 0.21 0.19 0.17 0.15 0.14 0.13 0.13 0.12 0.12 0.12 0.12 0.12 0.11 0.12 0.12 0.12 0.12 0.12 0.12 0.13
0.39 0.38 0.39 0.39 0.38 0.38 0.37 0.37 0.36 0.35 0.34 0.33 0.32 0.30 0.29 0.27 0.26 0.26 0.25 0.24 0.23 0.22 0.20 0.18 0.16 0.15 0.14 0.14 0.13 0.12 0.13 0.12 0.12 0.12 0.12 0.12 0.12 0.12 0.12 0.12 0.13 0.13
0.38 0.38 0.38 0.39 0.38 0.37 0.36 0.35 0.34 0.34 0.33 0.32 0.30 0.29 0.28 0.27 0.26 0.26 0.25 0.23 0.22 0.21 0.18 0.16 0.16 0.15 0.15 0.14 0.14 0.13 0.13 0.13 0.13 0.13 0.12 0.12 0.12 0.12 0.12 0.12 0.12 0.13
0.38 0.38 0.38 0.38 0.37 0.36 0.35 0.34 0.33 0.32 0.31 0.30 0.29 0.28 0.27 0.27 0.26 0.25 0.24 0.23 0.22 0.19 0.17 0.16 0.16 0.15 0.15 0.15 0.15 0.15 0.15 0.14 0.13 0.13 0.13 0.13 0.12 0.12 0.11 0.12 0.12 0.12
0.38 0.38 0.37 0.36 0.35 0.34 0.33 0.32 0.32 0.31 0.30 0.28 0.28 0.27 0.27 0.26 0.26 0.25 0.24 0.22 0.20 0.18 0.17 0.16 0.16 0.16 0.16 0.16 0.16 0.16 0.15 0.14 0.14 0.13 0.13 0.13 0.12 0.12 0.12 0.12 0.12 0.12
0.37 0.36 0.35 0.34 0.33 0.32 0.31 0.31 0.30 0.29 0.28 0.27 0.27 0.26 0.26 0.26 0.25 0.24 0.23 0.20 0.19 0.18 0.17 0.16 0.16 0.16 0.16 0.17 0.16 0.16 0.15 0.15 0.15 0.14 0.14 0.13 0.12 0.12 0.12 0.12 0.12 0.12
0.36 0.35 0.34 0.33 0.32 0.31 0.30 0.29 0.28 0.27 0.26 0.26 0.26 0.25 0.25 0.25 0.24 0.23 0.21 0.19 0.19 0.18 0.17 0.16 0.16 0.16 0.17 0.17 0.17 0.16 0.15 0.15 0.15 0.14 0.14 0.13 0.13 0.13 0.12 0.12 0.12 0.11
0.34 0.33 0.32 0.31 0.30 0.28 0.27 0.26 0.25 0.25 0.26 0.26 0.25 0.25 0.25 0.23 0.22 0.20 0.20 0.19 0.18 0.18 0.17 0.16 0.16 0.17 0.17 0.17 0.17 0.16 0.16 0.16 0.15 0.15 0.14 0.14 0.14 0.13 0.13 0.12 0.12 0.12
0.32 0.30 0.30 0.29 0.27 0.25 0.24 0.24 0.25 0.25 0.26 0.26 0.25 0.24 0.22 0.21 0.20 0.19 0.19 0.19 0.18 0.18 0.17 0.17 0.17 0.17 0.18 0.18 0.17 0.17 0.16 0.16 0.15 0.15 0.14 0.14 0.13 0.13 0.13 0.13 0.12 0.12
0.29 0.27 0.26 0.25 0.24 0.23 0.23 0.24 0.25 0.26 0.26 0.25 0.22 0.20 0.19 0.18 0.18 0.18 0.18 0.18 0.18 0.18 0.17 0.17 0.17 0.17 0.18 0.18 0.17 0.17 0.17 0.16 0.15 0.15 0.14 0.13 0.13 0.13 0.13 0.13 0.13 0.13
0.25 0.25 0.25 0.25 0.24 0.23 0.23 0.24 0.26 0.26 0.24 0.22 0.19 0.17 0.16 0.17 0.17 0.18 0.18 0.18 0.18 0.18 0.17 0.17 0.17 0.18 0.18 0.18 0.18 0.18 0.17 0.16 0.15 0.15 0.14 0.14 0.13 0.14 0.14 0.13 0.13 0.13
0.26 0.26 0.25 0.24 0.23 0.22 0.23 0.24 0.25 0.24 0.22 0.20 0.17 0.16 0.15 0.16 0.17 0.17 0.17 0.18 0.18 0.18 0.18 0.17 0.18 0.18 0.19 0.18 0.18 0.18 0.18 0.17 0.16 0.15 0.15 0.14 0.13 0.13 0.14 0.14 0.13 0.14
0.25 0.25 0.24 0.23 0.22 0.22 0.23 0.24 0.24 0.22 0.20 0.18 0.16 0.16 0.15 0.16 0.16 0.17 0.17 0.17 0.18 0.18 0.18 0.18 0.18 0.18 0.18 0.18 0.18 0.18 0.18 0.17 0.16 0.15 0.15 0.14 0.14 0.13 0.13 0.13 0.13 0.13